FW1385 Weather Reports


Display with metric or nautical units.
time (UTC)temp
F
wind
direction
speed
MPH
gust
MPH
rain 1hr
in
rain 24hr
in
rain mn
in
humidity
%
barometer
mb
20260904224004 95 88 0.0 1.0 0.00 0.00 0.00 56 1011.5
20260904223917 95 88 0.0 1.0 0.00 0.00 0.00 55 1011.5
20260904223904 96 88 0.0 1.0 0.00 0.00 0.00 55 1011.5
20260904223804 96 88 0.0 1.0 0.00 0.00 0.00 55 1011.5
20260904223604 96 89 1.0 3.0 0.00 0.00 0.00 54 1011.4
20260904223504 96 93 1.0 3.0 0.00 0.00 0.00 52 1011.4
20260904223403 96 95 1.0 3.0 0.00 0.00 0.00 52 1011.4
20260904223318 96 94 1.0 4.0 0.00 0.00 0.00 52 1011.4
20260904223303 96 91 1.0 4.0 0.00 0.00 0.00 52 1011.4
20260904223203 96 86 1.0 4.0 0.00 0.00 0.00 52 1011.4
20260904223003 97 82 1.0 4.0 0.00 0.00 0.00 52 1011.3
20260904222903 97 80 1.0 4.0 0.00 0.00 0.00 52 1011.3
20260904222803 97 80 1.0 4.0 0.00 0.00 0.00 51 1011.3
20260904222704 97 77 1.0 4.0 0.00 0.00 0.00 52 1011.3
20260904222616 97 74 1.0 4.0 0.00 0.00 0.00 52 1011.3
20260904222604 97 72 1.0 4.0 0.00 0.00 0.00 52 1011.3
20260904222503 97 64 1.0 4.0 0.00 0.00 0.00 52 1011.3
20260904222306 96 54 1.0 3.0 0.00 0.00 0.00 51 1011.2
20260904222204 97 52 1.0 3.0 0.00 0.00 0.00 51 1011.2
20260904222103 96 52 1.0 2.0 0.00 0.00 0.00 50 1011.2
20260904222004 97 52 0.0 2.0 0.00 0.00 0.00 51 1011.2
20260904221904 96 52 0.0 2.0 0.00 0.00 0.00 51 1011.2
20260904221803 96 52 0.0 2.0 0.00 0.00 0.00 51 1011.3
20260904221718 96 52 0.0 2.0 0.00 0.00 0.00 51 1011.3
20260904221704 96 52 0.0 2.0 0.00 0.00 0.00 52 1011.3
20260904221604 96 52 0.0 2.0 0.00 0.00 0.00 51 1011.3
20260904221519 96 52 0.0 2.0 0.00 0.00 0.00 51 1011.2
20260904221404 96 52 0.0 2.0 0.00 0.00 0.00 52 1011.2
20260904221203 96 52 0.0 1.0 0.00 0.00 0.00 53 1011.2
20260904221103 96 52 0.0 1.0 0.00 0.00 0.00 52 1011.2
20260904221003 97 52 0.0 1.0 0.00 0.00 0.00 52 1011.2
20260904220904 97 52 0.0 1.0 0.00 0.00 0.00 50 1011.2
20260904220803 97 52 0.0 2.0 0.00 0.00 0.00 50 1011.2
20260904220717 96 51 0.0 2.0 0.00 0.00 0.00 51 1011.2
20260904220403 96 50 1.0 2.0 0.00 0.00 0.00 51 1011.3
20260904220318 96 50 1.0 2.0 0.00 0.00 0.00 52 1011.3
20260904220303 96 49 1.0 2.0 0.00 0.00 0.00 52 1011.3
20260904220204 96 49 1.0 2.0 0.00 0.00 0.00 51 1011.3
20260904220003 96 49 1.0 2.0 0.00 0.00 0.00 52 1011.4
20260904215903 96 49 1.0 2.0 0.00 0.00 0.00 52 1011.4
20260904215804 96 48 1.0 2.0 0.00 0.00 0.00 53 1011.4
20260904215703 96 48 1.0 2.0 0.00 0.00 0.00 55 1011.4
20260904215603 96 48 1.0 2.0 0.00 0.00 0.00 53 1011.4
20260904215503 96 48 1.0 2.0 0.00 0.00 0.00 52 1011.4
20260904215403 96 48 1.0 2.0 0.00 0.00 0.00 53 1011.4
20260904215203 96 48 1.0 2.0 0.00 0.00 0.00 54 1011.4
20260904215103 95 48 1.0 2.0 0.00 0.00 0.00 51 1011.4
20260904215003 95 48 1.0 2.0 0.00 0.00 0.00 52 1011.4
20260904214903 95 48 1.0 2.0 0.00 0.00 0.00 54 1011.5
20260904214817 95 48 0.0 2.0 0.00 0.00 0.00 55 1011.5
20260904214804 95 48 0.0 2.0 0.00 0.00 0.00 56 1011.5
20260904214703 95 48 0.0 2.0 0.00 0.00 0.00 55 1011.4
20260904214504 95 48 0.0 2.0 0.00 0.00 0.00 56 1011.3
20260904214404 95 48 0.0 1.0 0.00 0.00 0.00 55 1011.4
20260904214303 95 48 0.0 1.0 0.00 0.00 0.00 55 1011.4
20260904214204 95 48 0.0 1.0 0.00 0.00 0.00 55 1011.4
20260904214103 95 48 0.0 1.0 0.00 0.00 0.00 55 1011.3
20260904214003 94 48 0.0 1.0 0.00 0.00 0.00 54 1011.3
20260904213904 94 48 0.0 1.0 0.00 0.00 0.00 56 1011.3
20260904213803 94 48 0.0 1.0 0.00 0.00 0.00 57 1011.3
20260904213704 94 48 0.0 1.0 0.00 0.00 0.00 56 1011.4
20260904213603 94 48 0.0 1.0 0.00 0.00 0.00 56 1011.4
20260904213504 95 48 0.0 1.0 0.00 0.00 0.00 56 1011.4
20260904213417 95 48 0.0 1.0 0.00 0.00 0.00 55 1011.4
20260904213303 95 48 0.0 1.0 0.00 0.00 0.00 55 1011.3
20260904213104 95 48 0.0 2.0 0.00 0.00 0.00 54 1011.4
20260904213003 95 48 0.0 2.0 0.00 0.00 0.00 53 1011.4
20260904212904 95 48 0.0 2.0 0.00 0.00 0.00 54 1011.3
20260904212803 96 48 1.0 2.0 0.00 0.00 0.00 53 1011.4
20260904212703 96 48 1.0 2.0 0.00 0.00 0.00 54 1011.4
20260904212603 96 48 1.0 2.0 0.00 0.00 0.00 52 1011.4
20260904212503 96 48 1.0 2.0 0.00 0.00 0.00 52 1011.4
20260904212403 96 48 1.0 2.0 0.00 0.00 0.00 51 1011.4
20260904212306 96 48 1.0 3.0 0.00 0.00 0.00 51 1011.4
20260904212204 97 49 1.0 3.0 0.00 0.00 0.00 51 1011.4
20260904211904 97 36 2.0 4.0 0.00 0.00 0.00 50 1011.4
20260904211803 97 30 2.0 4.0 0.00 0.00 0.00 49 1011.4
20260904211704 97 26 2.0 4.0 0.00 0.00 0.00 49 1011.4
20260904211604 97 24 2.0 4.0 0.00 0.00 0.00 49 1011.4
20260904211504 97 22 2.0 4.0 0.00 0.00 0.00 49 1011.5
20260904211403 98 18 2.0 4.0 0.00 0.00 0.00 48 1011.5
20260904211303 98 13 1.0 4.0 0.00 0.00 0.00 50 1011.5
20260904211218 98 8 1.0 4.0 0.00 0.00 0.00 49 1011.5
20260904211203 98 7 1.0 4.0 0.00 0.00 0.00 49 1011.5
20260904211119 98 6 1.0 4.0 0.00 0.00 0.00 49 1011.5
20260904211103 98 7 1.0 4.0 0.00 0.00 0.00 49 1011.5
20260904210816 98 33 1.0 3.0 0.00 0.00 0.00 48 1011.5
20260904210803 98 36 1.0 3.0 0.00 0.00 0.00 48 1011.5
20260904210704 98 46 1.0 4.0 0.00 0.00 0.00 49 1011.5
20260904210504 98 54 2.0 4.0 0.00 0.00 0.00 49 1011.5
20260904210403 98 61 2.0 4.0 0.00 0.00 0.00 48 1011.5
20260904210318 98 63 2.0 4.0 0.00 0.00 0.00 48 1011.5
20260904210304 98 62 2.0 4.0 0.00 0.00 0.00 48 1011.5
20260904210204 98 63 2.0 4.0 0.00 0.00 0.00 49 1011.5
20260904210019 98 56 2.0 4.0 0.00 0.00 0.00 49 1011.5
20260904210003 98 54 2.0 4.0 0.00 0.00 0.00 49 1011.5
20260904205904 98 44 2.0 4.0 0.00 0.00 0.00 48 1011.5
20260904205704 99 37 2.0 4.0 0.00 0.00 0.00 47 1011.6
20260904205603 99 34 1.0 4.0 0.00 0.00 0.00 48 1011.6
20260904205504 99 32 1.0 4.0 0.00 0.00 0.00 48 1011.6
20260904205403 99 31 2.0 4.0 0.00 0.00 0.00 48 1011.6
20260904205204 99 28 1.0 7.0 0.00 0.00 0.00 48 1011.6
20260904205103 99 10 2.0 7.0 0.00 0.00 0.00 47 1011.6
20260904205003 99 2 2.0 7.0 0.00 0.00 0.00 48 1011.6
20260904204903 99 358 2.0 7.0 0.00 0.00 0.00 47 1011.6
20260904204803 99 351 2.0 7.0 0.00 0.00 0.00 46 1011.7
20260904204704 99 346 2.0 7.0 0.00 0.00 0.00 47 1011.7
20260904204618 99 337 2.0 7.0 0.00 0.00 0.00 46 1011.7
20260904204603 99 336 2.0 7.0 0.00 0.00 0.00 46 1011.7
20260904204504 99 327 2.0 7.0 0.00 0.00 0.00 46 1011.7
20260904204304 100 303 2.0 7.0 0.00 0.00 0.00 46 1011.8
20260904204218 100 302 2.0 6.0 0.00 0.00 0.00 45 1011.8
20260904204203 100 303 2.0 6.0 0.00 0.00 0.00 45 1011.8
20260904204104 100 300 1.0 4.0 0.00 0.00 0.00 46 1011.8
20260904203903 100 278 1.0 4.0 0.00 0.00 0.00 47 1011.9
20260904203804 100 278 1.0 4.0 0.00 0.00 0.00 46 1011.9
20260904203719 100 276 1.0 4.0 0.00 0.00 0.00 46 1011.9
20260904203704 100 276 1.0 4.0 0.00 0.00 0.00 45 1011.9
20260904203603 100 281 1.0 4.0 0.00 0.00 0.00 45 1011.9
20260904203404 100 288 1.0 4.0 0.00 0.00 0.00 47 1011.9
20260904203304 100 282 1.0 3.0 0.00 0.00 0.00 47 1011.9
20260904203203 100 292 1.0 3.0 0.00 0.00 0.00 46 1012.0
20260904203103 100 296 1.0 3.0 0.00 0.00 0.00 45 1012.0
20260904203003 100 302 1.0 3.0 0.00 0.00 0.00 46 1011.9
20260904202918 100 307 0.0 3.0 0.00 0.00 0.00 46 1012.1
20260904202903 100 310 0.0 3.0 0.00 0.00 0.00 46 1012.1
20260904202803 100 318 0.0 3.0 0.00 0.00 0.00 46 1012.1
20260904202603 100 318 0.0 2.0 0.00 0.00 0.00 46 1012.1
20260904202503 100 304 1.0 2.0 0.00 0.00 0.00 45 1012.1
20260904202417 100 292 1.0 2.0 0.00 0.00 0.00 46 1012.1
20260904202404 100 291 1.0 2.0 0.00 0.00 0.00 46 1012.1
20260904202305 100 296 1.0 2.0 0.00 0.00 0.00 45 1012.1
20260904202103 100 337 1.0 2.0 0.00 0.00 0.00 47 1012.1
20260904202003 100 353 1.0 2.0 0.00 0.00 0.00 43 1012.1
20260904201918 101 355 1.0 2.0 0.00 0.00 0.00 44 1012.2
20260904201904 101 357 1.0 3.0 0.00 0.00 0.00 44 1012.2
20260904201803 101 5 1.0 3.0 0.00 0.00 0.00 46 1012.2
20260904201603 100 14 1.0 3.0 0.00 0.00 0.00 47 1012.2
20260904201503 100 15 1.0 4.0 0.00 0.00 0.00 45 1012.2
20260904201417 100 18 1.0 5.0 0.00 0.00 0.00 45 1012.2
20260904201405 100 19 1.0 5.0 0.00 0.00 0.00 44 1012.2
20260904201317 100 18 2.0 5.0 0.00 0.00 0.00 44 1012.2
20260904201303 100 19 2.0 5.0 0.00 0.00 0.00 44 1012.2
20260904201004 100 16 2.0 5.0 0.00 0.00 0.00 44 1012.2
20260904200903 100 19 1.0 5.0 0.00 0.00 0.00 45 1012.2
20260904200704 100 27 1.0 5.0 0.00 0.00 0.00 44 1012.2
20260904200603 100 29 1.0 5.0 0.00 0.00 0.00 45 1012.2
20260904200503 100 31 1.0 5.0 0.00 0.00 0.00 45 1012.2
20260904200404 100 30 1.0 3.0 0.00 0.00 0.00 46 1012.2
20260904200304 100 30 1.0 3.0 0.00 0.00 0.00 47 1012.2
20260904200204 99 30 1.0 3.0 0.00 0.00 0.00 47 1012.2
20260904200004 99 30 1.0 3.0 0.00 0.00 0.00 48 1012.2
20260904195903 99 30 1.0 4.0 0.00 0.00 0.00 49 1012.3
20260904195804 99 30 2.0 4.0 0.00 0.00 0.00 47 1012.3
20260904195717 99 30 1.0 4.0 0.00 0.00 0.00 47 1012.3
20260904195704 99 30 1.0 4.0 0.00 0.00 0.00 46 1012.3
20260904195619 99 30 1.0 4.0 0.00 0.00 0.00 46 1012.4
20260904195604 99 30 1.0 4.0 0.00 0.00 0.00 47 1012.4
20260904195305 100 29 1.0 4.0 0.00 0.00 0.00 46 1012.5
20260904195203 100 29 2.0 4.0 0.00 0.00 0.00 49 1012.5
20260904195104 100 29 2.0 4.0 0.00 0.00 0.00 47 1012.5
20260904195003 100 28 1.0 4.0 0.00 0.00 0.00 47 1012.5
20260904194904 100 28 1.0 4.0 0.00 0.00 0.00 48 1012.5
20260904194803 100 28 1.0 3.0 0.00 0.00 0.00 48 1012.6
20260904194704 100 28 1.0 3.0 0.00 0.00 0.00 51 1012.6
20260904194617 99 30 1.0 3.0 0.00 0.00 0.00 50 1012.6
20260904194604 99 31 1.0 3.0 0.00 0.00 0.00 50 1012.6
20260904194503 99 34 1.0 3.0 0.00 0.00 0.00 50 1012.7
20260904194319 98 41 1.0 3.0 0.00 0.00 0.00 51 1012.7
20260904194304 98 42 1.0 3.0 0.00 0.00 0.00 51 1012.7
20260904194204 98 47 1.0 3.0 0.00 0.00 0.00 50 1012.7
20260904194004 98 52 1.0 3.0 0.00 0.00 0.00 48 1012.7
20260904193903 98 55 1.0 3.0 0.00 0.00 0.00 47 1012.7
20260904193818 98 57 1.0 3.0 0.00 0.00 0.00 47 1012.7
20260904193803 98 59 1.0 3.0 0.00 0.00 0.00 47 1012.7
20260904193703 98 65 1.0 3.0 0.00 0.00 0.00 47 1012.7
20260904193518 98 74 0.0 3.0 0.00 0.00 0.00 47 1012.9
20260904193504 98 75 0.0 3.0 0.00 0.00 0.00 47 1012.9
20260904193404 98 78 0.0 3.0 0.00 0.00 0.00 47 1012.9
20260904193203 98 0 0.0 0.0 0.00 0.00 0.00 50 1012.9
20260904193103 98 0 0.0 0.0 0.00 0.00 0.00 50 1012.9
20260904193003 97 0 0.0 0.0 0.00 0.00 0.00 50 1012.9
20260904192903 97 0 0.0 0.0 0.00 0.00 0.00 50 1012.9
20260904192803 97 0 0.0 0.0 0.00 0.00 0.00 50 1012.9
20260904192704 97 0 0.0 0.0 0.00 0.00 0.00 50 1012.9
20260904192603 97 0 0.0 0.0 0.00 0.00 0.00 50 1012.9
20260904192503 97 0 0.0 0.0 0.00 0.00 0.00 49 1013.0
20260904192403 97 0 0.0 0.0 0.00 0.00 0.00 49 1013.0
20260904192306 97 0 0.0 0.0 0.00 0.00 0.00 52 1013.1
20260904192204 97 1 0.0 1.0 0.00 0.00 0.00 50 1013.1
20260904192104 98 1 0.0 1.0 0.00 0.00 0.00 51 1013.1
20260904192003 98 1 0.0 1.0 0.00 0.00 0.00 50 1013.2
20260904191903 98 1 0.0 2.0 0.00 0.00 0.00 50 1013.2
20260904191804 98 1 0.0 2.0 0.00 0.00 0.00 52 1013.2
20260904191703 97 1 0.0 2.0 0.00 0.00 0.00 52 1013.2
20260904191603 97 1 0.0 2.0 0.00 0.00 0.00 52 1013.2
20260904191403 97 1 0.0 2.0 0.00 0.00 0.00 50 1013.2
20260904191304 97 1 0.0 2.0 0.00 0.00 0.00 50 1013.2
20260904191203 97 1 0.0 2.0 0.00 0.00 0.00 50 1013.2
20260904190917 97 360 0.0 2.0 0.00 0.00 0.00 51 1013.2
20260904190903 97 360 0.0 2.0 0.00 0.00 0.00 51 1013.3
20260904190803 98 354 0.0 2.0 0.00 0.00 0.00 51 1013.3
20260904190604 98 348 0.0 2.0 0.00 0.00 0.00 50 1013.2
20260904190503 98 342 1.0 3.0 0.00 0.00 0.00 49 1013.2
20260904190404 99 333 1.0 3.0 0.00 0.00 0.00 49 1013.2
20260904190304 99 316 1.0 3.0 0.00 0.00 0.00 49 1013.2
20260904190203 99 267 1.0 3.0 0.00 0.00 0.00 49 1013.2
20260904190003 99 228 1.0 3.0 0.00 0.00 0.00 50 1013.3
20260904185904 99 223 1.0 3.0 0.00 0.00 0.00 49 1013.3
20260904185803 99 206 1.0 3.0 0.00 0.00 0.00 53 1013.3
20260904185703 99 198 1.0 3.0 0.00 0.00 0.00 50 1013.4
20260904185603 98 191 1.0 3.0 0.00 0.00 0.00 51 1013.4
20260904185503 98 180 1.0 3.0 0.00 0.00 0.00 52 1013.4
20260904185403 97 176 1.0 3.0 0.00 0.00 0.00 53 1013.4
20260904185306 97 172 1.0 3.0 0.00 0.00 0.00 51 1013.4
20260904185219 97 164 1.0 3.0 0.00 0.00 0.00 51 1013.5
20260904185204 97 160 1.0 3.0 0.00 0.00 0.00 51 1013.5
20260904185103 97 141 1.0 3.0 0.00 0.00 0.00 51 1013.5
20260904184903 97 112 1.0 3.0 0.00 0.00 0.00 51 1013.5
20260904184803 97 92 1.0 3.0 0.00 0.00 0.00 50 1013.5
20260904184716 97 77 1.0 3.0 0.00 0.00 0.00 51 1013.5
20260904184604 97 61 1.0 3.0 0.00 0.00 0.00 51 1013.5
20260904184403 98 47 1.0 3.0 0.00 0.00 0.00 50 1013.5
20260904184303 98 40 1.0 3.0 0.00 0.00 0.00 50 1013.5
20260904184217 98 33 1.0 3.0 0.00 0.00 0.00 50 1013.5
20260904184203 98 30 1.0 3.0 0.00 0.00 0.00 50 1013.5
20260904184103 98 15 1.0 3.0 0.00 0.00 0.00 50 1013.6
20260904183903 97 11 1.0 2.0 0.00 0.00 0.00 51 1013.6
20260904183804 97 10 1.0 2.0 0.00 0.00 0.00 50 1013.7
20260904183703 97 10 1.0 2.0 0.00 0.00 0.00 50 1013.7
20260904183603 98 9 1.0 3.0 0.00 0.00 0.00 50 1013.7
20260904183403 98 9 1.0 3.0 0.00 0.00 0.00 54 1013.7
20260904183303 98 9 1.0 3.0 0.00 0.00 0.00 52 1013.7
20260904183203 98 9 1.0 3.0 0.00 0.00 0.00 52 1013.7
20260904183103 98 9 1.0 3.0 0.00 0.00 0.00 51 1013.7
20260904183004 98 9 1.0 3.0 0.00 0.00 0.00 51 1013.7
20260904182903 98 9 1.0 3.0 0.00 0.00 0.00 53 1013.7
20260904182803 98 7 1.0 3.0 0.00 0.00 0.00 51 1013.7
20260904182704 98 359 1.0 3.0 0.00 0.00 0.00 52 1013.7
20260904182603 98 349 1.0 3.0 0.00 0.00 0.00 54 1013.7
20260904182517 97 344 1.0 3.0 0.00 0.00 0.00 54 1013.7
20260904182503 97 343 1.0 3.0 0.00 0.00 0.00 54 1013.8
20260904182403 97 342 1.0 3.0 0.00 0.00 0.00 55 1013.8
20260904182203 97 343 1.0 3.0 0.00 0.00 0.00 52 1013.8
20260904182103 97 343 1.0 3.0 0.00 0.00 0.00 52 1013.8
20260904182003 97 344 1.0 4.0 0.00 0.00 0.00 51 1013.8
20260904181904 98 349 2.0 4.0 0.00 0.00 0.00 51 1013.8
20260904181803 98 353 2.0 4.0 0.00 0.00 0.00 49 1013.8
20260904181704 98 2 2.0 4.0 0.00 0.00 0.00 49 1013.8
20260904181603 98 7 2.0 4.0 0.00 0.00 0.00 51 1013.8
20260904181504 98 14 2.0 4.0 0.00 0.00 0.00 52 1013.7
20260904181405 98 18 2.0 4.0 0.00 0.00 0.00 52 1013.7
20260904181303 98 19 2.0 4.0 0.00 0.00 0.00 52 1013.7
20260904181203 98 26 2.0 4.0 0.00 0.00 0.00 50 1013.8
20260904181104 98 27 2.0 4.0 0.00 0.00 0.00 49 1013.8
20260904181004 99 33 2.0 4.0 0.00 0.00 0.00 50 1013.8
20260904180904 99 35 1.0 4.0 0.00 0.00 0.00 49 1013.8
20260904180803 99 28 2.0 4.0 0.00 0.00 0.00 50 1013.9
20260904180703 99 20 2.0 4.0 0.00 0.00 0.00 51 1013.9
20260904180603 99 16 1.0 4.0 0.00 0.00 0.00 50 1013.9
20260904180504 100 357 1.0 4.0 0.00 0.00 0.00 48 1013.9
20260904180403 100 354 1.0 4.0 0.00 0.00 0.00 48 1013.9
20260904180318 100 359 2.0 4.0 0.00 0.00 0.00 48 1013.9
20260904180304 100 357 2.0 4.0 0.00 0.00 0.00 48 1013.9
20260904180203 100 340 2.0 4.0 0.00 0.00 0.00 49 1013.8
20260904180004 100 331 1.0 4.0 0.00 0.00 0.00 47 1013.9
20260904175903 100 317 1.0 4.0 0.00 0.00 0.00 48 1013.9
20260904175803 100 258 1.0 4.0 0.00 0.00 0.00 48 1013.9
20260904175704 100 198 1.0 4.0 0.00 0.00 0.00 48 1013.9
20260904175603 100 181 1.0 4.0 0.00 0.00 0.00 47 1013.9
20260904175503 100 139 1.0 4.0 0.00 0.00 0.00 48 1013.9
20260904175404 100 135 1.0 4.0 0.00 0.00 0.00 48 1014.0
20260904175306 100 126 1.0 4.0 0.00 0.00 0.00 49 1014.0
20260904175217 100 116 1.0 4.0 0.00 0.00 0.00 51 1014.0
20260904175203 100 115 1.0 4.0 0.00 0.00 0.00 51 1014.0
20260904175103 100 108 1.0 4.0 0.00 0.00 0.00 52 1014.0
20260904175018 100 114 1.0 4.0 0.00 0.00 0.00 51 1014.1
20260904174903 100 109 1.0 4.0 0.00 0.00 0.00 48 1014.2
20260904174704 99 58 1.0 4.0 0.00 0.00 0.00 50 1014.2
20260904174604 99 52 1.0 4.0 0.00 0.00 0.00 50 1014.2
20260904174504 99 34 1.0 4.0 0.00 0.00 0.00 51 1014.2
20260904174403 99 20 1.0 4.0 0.00 0.00 0.00 51 1014.2
20260904174303 99 1 1.0 4.0 0.00 0.00 0.00 50 1014.2
20260904174203 99 353 1.0 4.0 0.00 0.00 0.00 49 1014.3
20260904174104 99 351 1.0 4.0 0.00 0.00 0.00 50 1014.3
20260904174018 99 360 1.0 4.0 0.00 0.00 0.00 49 1014.3
20260904173904 99 16 1.0 4.0 0.00 0.00 0.00 49 1014.3
20260904173704 99 28 1.0 4.0 0.00 0.00 0.00 50 1014.4
20260904173603 99 27 1.0 4.0 0.00 0.00 0.00 49 1014.4
20260904173503 99 25 1.0 4.0 0.00 0.00 0.00 49 1014.4
20260904173403 99 22 1.0 4.0 0.00 0.00 0.00 49 1014.4
20260904173304 99 20 1.0 4.0 0.00 0.00 0.00 49 1014.4
20260904173203 99 18 2.0 4.0 0.00 0.00 0.00 48 1014.4
20260904173104 99 17 2.0 4.0 0.00 0.00 0.00 48 1014.5
20260904173003 100 17 2.0 4.0 0.00 0.00 0.00 49 1014.5
20260904172903 100 16 2.0 4.0 0.00 0.00 0.00 50 1014.5
20260904172804 100 15 2.0 4.0 0.00 0.00 0.00 50 1014.5
20260904172604 100 15 2.0 7.0 0.00 0.00 0.00 49 1014.5
20260904172504 99 17 2.0 7.0 0.00 0.00 0.00 51 1014.5
20260904172404 100 18 2.0 7.0 0.00 0.00 0.00 50 1014.5
20260904172305 100 19 2.0 7.0 0.00 0.00 0.00 49 1014.5
20260904172203 100 18 2.0 7.0 0.00 0.00 0.00 49 1014.5
20260904172103 99 15 2.0 7.0 0.00 0.00 0.00 49 1014.5
20260904172003 99 12 1.0 7.0 0.00 0.00 0.00 49 1014.5
20260904171904 99 13 1.0 7.0 0.00 0.00 0.00 49 1014.5
20260904171803 99 14 1.0 7.0 0.00 0.00 0.00 49 1014.5
20260904171704 99 14 1.0 7.0 0.00 0.00 0.00 48 1014.5
20260904171603 99 11 1.0 4.0 0.00 0.00 0.00 50 1014.6
20260904171504 99 8 1.0 4.0 0.00 0.00 0.00 50 1014.6
20260904171418 99 7 1.0 4.0 0.00 0.00 0.00 49 1014.6
20260904171403 99 8 1.0 4.0 0.00 0.00 0.00 49 1014.6
20260904171219 99 10 2.0 5.0 0.00 0.00 0.00 49 1014.6
20260904171103 99 14 2.0 5.0 0.00 0.00 0.00 50 1014.7
20260904170917 99 15 1.0 5.0 0.00 0.00 0.00 50 1014.7
20260904170904 99 14 1.0 5.0 0.00 0.00 0.00 50 1014.7
20260904170804 99 14 2.0 5.0 0.00 0.00 0.00 49 1014.7
20260904170603 99 13 2.0 5.0 0.00 0.00 0.00 49 1014.6
20260904170503 99 11 2.0 7.0 0.00 0.00 0.00 49 1014.6
20260904170403 99 11 2.0 7.0 0.00 0.00 0.00 48 1014.6
20260904170304 99 10 2.0 7.0 0.00 0.00 0.00 48 1014.7
20260904170217 99 10 2.0 7.0 0.00 0.00 0.00 50 1014.7
20260904165903 99 360 3.0 7.0 0.00 0.00 0.00 50 1014.7
20260904165804 99 360 3.0 7.0 0.00 0.00 0.00 50 1014.7
20260904165704 99 356 2.0 7.0 0.00 0.00 0.00 49 1014.7
20260904165618 99 354 2.0 7.0 0.00 0.00 0.00 49 1014.7
20260904165603 99 352 2.0 7.0 0.00 0.00 0.00 51 1014.7
20260904165504 99 347 2.0 5.0 0.00 0.00 0.00 50 1014.7
20260904165318 99 333 2.0 5.0 0.00 0.00 0.00 52 1014.7
20260904165305 99 331 2.0 5.0 0.00 0.00 0.00 52 1014.7
20260904165219 99 332 2.0 5.0 0.00 0.00 0.00 51 1014.7
20260904165204 99 332 2.0 6.0 0.00 0.00 0.00 51 1014.7
20260904164904 99 342 1.0 6.0 0.00 0.00 0.00 52 1014.8
20260904164803 99 344 1.0 6.0 0.00 0.00 0.00 55 1014.7
20260904164717 98 356 1.0 6.0 0.00 0.00 0.00 53 1014.7
20260904164703 99 357 1.0 6.0 0.00 0.00 0.00 53 1014.8
20260904164603 98 4 2.0 6.0 0.00 0.00 0.00 52 1014.8
20260904164404 98 16 2.0 6.0 0.00 0.00 0.00 54 1014.8
20260904164304 98 20 2.0 6.0 0.00 0.00 0.00 53 1014.8
20260904164203 98 26 1.0 5.0 0.00 0.00 0.00 55 1014.8
20260904164103 98 22 1.0 3.0 0.00 0.00 0.00 52 1014.8
20260904164004 98 25 2.0 3.0 0.00 0.00 0.00 53 1014.9
20260904163903 98 28 2.0 3.0 0.00 0.00 0.00 52 1014.9
20260904163804 98 15 2.0 4.0 0.00 0.00 0.00 53 1014.9
20260904163704 98 354 2.0 4.0 0.00 0.00 0.00 53 1014.8
20260904163603 98 336 2.0 4.0 0.00 0.00 0.00 55 1014.8
20260904163504 98 325 2.0 4.0 0.00 0.00 0.00 56 1014.8
20260904163403 98 328 2.0 4.0 0.00 0.00 0.00 53 1014.9
20260904163303 98 336 2.0 4.0 0.00 0.00 0.00 53 1014.9
20260904163203 98 350 2.0 4.0 0.00 0.00 0.00 54 1014.9
20260904163117 98 355 2.0 4.0 0.00 0.00 0.00 54 1014.9
20260904163103 98 355 2.0 4.0 0.00 0.00 0.00 55 1014.9
20260904163004 98 357 2.0 4.0 0.00 0.00 0.00 54 1014.9
20260904162918 98 357 2.0 4.0 0.00 0.00 0.00 54 1014.9
20260904162804 98 8 1.0 4.0 0.00 0.00 0.00 53 1014.8
20260904162603 98 32 1.0 4.0 0.00 0.00 0.00 55 1014.9
20260904162504 98 50 1.0 4.0 0.00 0.00 0.00 54 1014.9
20260904162404 98 60 1.0 4.0 0.00 0.00 0.00 53 1014.9
20260904162306 98 101 1.0 4.0 0.00 0.00 0.00 55 1014.9
20260904162203 98 150 1.0 3.0 0.00 0.00 0.00 55 1014.9
20260904162104 98 170 1.0 2.0 0.00 0.00 0.00 56 1014.9
20260904162003 98 182 1.0 2.0 0.00 0.00 0.00 58 1014.9
20260904161903 98 182 1.0 2.0 0.00 0.00 0.00 57 1015.0
20260904161803 98 177 1.0 3.0 0.00 0.00 0.00 57 1015.0
20260904161705 97 181 1.0 3.0 0.00 0.00 0.00 57 1015.0
20260904161603 97 200 1.0 3.0 0.00 0.00 0.00 56 1015.0
20260904161504 97 208 1.0 3.0 0.00 0.00 0.00 56 1015.0
20260904161403 97 214 1.0 3.0 0.00 0.00 0.00 56 1015.1
20260904161304 97 222 1.0 3.0 0.00 0.00 0.00 56 1015.1
20260904161203 97 242 1.0 3.0 0.00 0.00 0.00 55 1015.0
20260904161109 97 270 1.0 3.0 0.00 0.00 0.00 55 1015.1
20260904161004 97 277 1.0 3.0 0.00 0.00 0.00 55 1015.1
20260904160903 97 287 1.0 3.0 0.00 0.00 0.00 55 1015.2
20260904160804 97 302 1.0 4.0 0.00 0.00 0.00 56 1015.2
20260904160704 97 311 1.0 4.0 0.00 0.00 0.00 56 1015.2
20260904160603 97 320 1.0 4.0 0.00 0.00 0.00 57 1015.2
20260904160503 96 323 1.0 4.0 0.00 0.00 0.00 58 1015.2
20260904160403 96 336 1.0 4.0 0.00 0.00 0.00 58 1015.1
20260904160303 96 340 2.0 4.0 0.00 0.00 0.00 56 1015.1
20260904160204 96 343 2.0 4.0 0.00 0.00 0.00 56 1015.2
20260904160103 96 354 1.0 4.0 0.00 0.00 0.00 57 1015.1
20260904160003 96 1 1.0 4.0 0.00 0.00 0.00 57 1015.1
20260904155903 96 9 1.0 4.0 0.00 0.00 0.00 57 1015.1
20260904155704 96 18 1.0 4.0 0.00 0.00 0.00 57 1015.1
20260904155604 96 18 1.0 4.0 0.00 0.00 0.00 57 1015.1
20260904155504 96 19 1.0 4.0 0.00 0.00 0.00 57 1015.1
20260904155306 96 20 1.0 3.0 0.00 0.00 0.00 58 1015.2
20260904155204 96 19 1.0 3.0 0.00 0.00 0.00 57 1015.2
20260904155103 96 20 1.0 3.0 0.00 0.00 0.00 59 1015.2
20260904155004 96 21 1.0 2.0 0.00 0.00 0.00 59 1015.2
20260904154904 95 21 1.0 2.0 0.00 0.00 0.00 59 1015.2
20260904154804 96 22 1.0 4.0 0.00 0.00 0.00 59 1015.2
20260904154704 95 22 1.0 4.0 0.00 0.00 0.00 58 1015.2
20260904154603 95 23 1.0 4.0 0.00 0.00 0.00 58 1015.2
20260904154503 95 24 1.0 4.0 0.00 0.00 0.00 58 1015.2
20260904154419 95 26 2.0 4.0 0.00 0.00 0.00 58 1015.2
20260904154318 95 30 2.0 4.0 0.00 0.00 0.00 58 1015.2
20260904154304 95 31 2.0 4.0 0.00 0.00 0.00 58 1015.2
20260904154003 95 37 1.0 4.0 0.00 0.00 0.00 58 1015.3
20260904153904 95 44 1.0 4.0 0.00 0.00 0.00 58 1015.3
20260904153803 95 53 1.0 4.0 0.00 0.00 0.00 59 1015.3
20260904153703 95 67 1.0 4.0 0.00 0.00 0.00 59 1015.3
20260904153604 95 84 1.0 4.0 0.00 0.00 0.00 57 1015.3
20260904153503 95 104 1.0 4.0 0.00 0.00 0.00 58 1015.2
20260904153403 95 113 1.0 3.0 0.00 0.00 0.00 58 1015.2
20260904153304 95 113 1.0 3.0 0.00 0.00 0.00 61 1015.2
20260904153203 95 113 1.0 3.0 0.00 0.00 0.00 61 1015.2
20260904153104 94 113 1.0 3.0 0.00 0.00 0.00 59 1015.2
20260904153003 94 110 1.0 3.0 0.00 0.00 0.00 59 1015.2
20260904152904 94 105 1.0 3.0 0.00 0.00 0.00 60 1015.2
20260904152803 94 99 1.0 3.0 0.00 0.00 0.00 61 1015.2
20260904152704 94 88 1.0 3.0 0.00 0.00 0.00 61 1015.2
20260904152604 94 71 1.0 3.0 0.00 0.00 0.00 62 1015.1
20260904152503 94 64 1.0 3.0 0.00 0.00 0.00 60 1015.2
20260904152403 94 55 1.0 3.0 0.00 0.00 0.00 59 1015.2
20260904152317 94 49 1.0 3.0 0.00 0.00 0.00 59 1015.1
20260904152306 94 47 1.0 3.0 0.00 0.00 0.00 59 1015.1
20260904152203 94 34 1.0 3.0 0.00 0.00 0.00 61 1015.2
20260904152003 94 11 1.0 3.0 0.00 0.00 0.00 60 1015.2
20260904151903 94 5 0.0 2.0 0.00 0.00 0.00 59 1015.2
20260904151803 94 360 0.0 2.0 0.00 0.00 0.00 60 1015.1
20260904151703 94 355 0.0 2.0 0.00 0.00 0.00 60 1015.2
20260904151603 94 355 0.0 2.0 0.00 0.00 0.00 61 1015.2
20260904151518 94 355 0.0 2.0 0.00 0.00 0.00 61 1015.2
20260904151504 94 355 0.0 2.0 0.00 0.00 0.00 62 1015.2
20260904151403 94 355 0.0 3.0 0.00 0.00 0.00 62 1015.2
20260904151203 93 355 1.0 3.0 0.00 0.00 0.00 61 1015.1
20260904151103 93 355 1.0 3.0 0.00 0.00 0.00 61 1015.1
20260904151004 93 354 1.0 3.0 0.00 0.00 0.00 63 1015.1
20260904150903 93 354 1.0 3.0 0.00 0.00 0.00 63 1015.1
20260904150803 93 354 1.0 3.0 0.00 0.00 0.00 62 1015.1
20260904150704 93 354 1.0 3.0 0.00 0.00 0.00 61 1015.1
20260904150604 92 354 1.0 3.0 0.00 0.00 0.00 61 1015.1
20260904150518 92 354 1.0 3.0 0.00 0.00 0.00 61 1015.1
20260904150419 92 354 1.0 3.0 0.00 0.00 0.00 62 1015.1
20260904150403 92 354 1.0 2.0 0.00 0.00 0.00 64 1015.1
20260904150004 92 354 1.0 2.0 0.00 0.00 0.00 65 1015.1
20260904145903 92 354 0.0 2.0 0.00 0.00 0.00 65 1015.1
20260904145703 92 354 1.0 2.0 0.00 0.00 0.00 64 1015.1
20260904145603 92 354 1.0 2.0 0.00 0.00 0.00 65 1015.1
20260904145503 92 354 0.0 2.0 0.00 0.00 0.00 65 1015.1
20260904145404 91 354 0.0 2.0 0.00 0.00 0.00 64 1015.1
20260904145305 91 354 0.0 2.0 0.00 0.00 0.00 64 1015.1
20260904145203 91 354 0.0 2.0 0.00 0.00 0.00 65 1015.2
20260904145103 91 354 0.0 2.0 0.00 0.00 0.00 67 1015.1
20260904145004 91 354 0.0 2.0 0.00 0.00 0.00 66 1015.1
20260904144903 91 354 0.0 2.0 0.00 0.00 0.00 67 1015.1
20260904144803 91 354 0.0 1.0 0.00 0.00 0.00 68 1015.1
20260904144703 91 354 0.0 1.0 0.00 0.00 0.00 70 1015.1
20260904144603 91 354 0.0 2.0 0.00 0.00 0.00 70 1015.0
20260904144503 90 354 0.0 2.0 0.00 0.00 0.00 70 1015.0
20260904144403 90 354 0.0 2.0 0.00 0.00 0.00 70 1015.0
20260904144303 90 354 0.0 2.0 0.00 0.00 0.00 69 1015.0
20260904144204 90 354 0.0 2.0 0.00 0.00 0.00 69 1015.0
20260904144103 90 354 1.0 3.0 0.00 0.00 0.00 71 1015.1
20260904144003 90 354 1.0 3.0 0.00 0.00 0.00 70 1015.1
20260904143903 90 354 1.0 3.0 0.00 0.00 0.00 70 1015.0
20260904143803 90 354 1.0 3.0 0.00 0.00 0.00 70 1015.0
20260904143703 90 354 1.0 3.0 0.00 0.00 0.00 70 1015.1
20260904143503 90 354 1.0 3.0 0.00 0.00 0.00 73 1015.1
20260904143404 90 354 1.0 3.0 0.00 0.00 0.00 72 1015.1
20260904143304 89 354 1.0 3.0 0.00 0.00 0.00 73 1015.1
20260904143204 89 354 1.0 3.0 0.00 0.00 0.00 72 1015.1
20260904143104 89 355 1.0 3.0 0.00 0.00 0.00 72 1015.1
20260904143003 89 355 0.0 3.0 0.00 0.00 0.00 73 1015.1
20260904142903 89 355 0.0 3.0 0.00 0.00 0.00 74 1015.1
20260904142803 89 355 0.0 3.0 0.00 0.00 0.00 74 1015.0
20260904142704 88 355 0.0 3.0 0.00 0.00 0.00 73 1015.0
20260904142603 88 355 0.0 3.0 0.00 0.00 0.00 74 1015.1
20260904142503 88 355 0.0 3.0 0.00 0.00 0.00 73 1015.1
20260904142403 88 355 0.0 3.0 0.00 0.00 0.00 74 1015.0
20260904142306 88 355 0.0 2.0 0.00 0.00 0.00 74 1015.0
20260904142203 88 355 0.0 2.0 0.00 0.00 0.00 75 1015.0
20260904142103 88 355 1.0 3.0 0.00 0.00 0.00 76 1015.0
20260904142004 88 355 1.0 3.0 0.00 0.00 0.00 75 1015.0
20260904141904 88 355 1.0 3.0 0.00 0.00 0.00 75 1015.0
20260904141818 88 355 1.0 3.0 0.00 0.00 0.00 75 1015.0
20260904141704 87 355 1.0 3.0 0.00 0.00 0.00 76 1015.0
20260904141503 87 355 1.0 3.0 0.00 0.00 0.00 73 1015.0
20260904141403 87 355 1.0 3.0 0.00 0.00 0.00 73 1015.0
20260904141303 87 355 1.0 3.0 0.00 0.00 0.00 73 1015.1
20260904141203 87 355 1.0 3.0 0.00 0.00 0.00 74 1015.1
20260904141118 87 355 1.0 3.0 0.00 0.00 0.00 74 1015.0
20260904141004 87 355 1.0 3.0 0.00 0.00 0.00 74 1015.0
20260904140917 87 355 1.0 3.0 0.00 0.00 0.00 75 1015.0
20260904140804 87 355 1.0 3.0 0.00 0.00 0.00 74 1014.9
20260904140604 86 355 1.0 3.0 0.00 0.00 0.00 75 1015.0
20260904140503 86 355 1.0 3.0 0.00 0.00 0.00 76 1014.9
20260904140404 86 355 1.0 3.0 0.00 0.00 0.00 77 1014.9
20260904140303 86 355 1.0 3.0 0.00 0.00 0.00 77 1014.9
20260904140203 86 355 0.0 3.0 0.00 0.00 0.00 78 1014.9
20260904135903 85 355 0.0 2.0 0.00 0.00 0.00 80 1014.9
20260904135803 85 355 0.0 2.0 0.00 0.00 0.00 80 1014.8
20260904135704 85 355 0.0 2.0 0.00 0.00 0.00 80 1014.9
20260904135617 85 355 0.0 2.0 0.00 0.00 0.00 80 1014.9
20260904135604 84 355 0.0 2.0 0.00 0.00 0.00 80 1014.9
20260904135503 84 355 0.0 2.0 0.00 0.00 0.00 80 1014.9
20260904135306 84 0 0.0 0.0 0.00 0.00 0.00 80 1014.8
20260904135203 84 0 0.0 0.0 0.00 0.00 0.00 81 1014.8
20260904135104 84 0 0.0 0.0 0.00 0.00 0.00 81 1014.8
20260904134903 84 0 0.0 0.0 0.00 0.00 0.00 82 1014.9
20260904134803 84 355 0.0 1.0 0.00 0.00 0.00 82 1014.9
20260904134703 83 355 0.0 1.0 0.00 0.00 0.00 82 1014.9
20260904134603 83 355 0.0 1.0 0.00 0.00 0.00 82 1014.9
20260904134503 83 355 0.0 1.0 0.00 0.00 0.00 82 1014.9
20260904134403 83 355 0.0 1.0 0.00 0.00 0.00 82 1015.0
20260904134304 83 355 0.0 1.0 0.00 0.00 0.00 82 1015.0
20260904134204 83 355 0.0 1.0 0.00 0.00 0.00 82 1014.9
20260904134103 83 355 0.0 1.0 0.00 0.00 0.00 82 1014.9
20260904133904 82 355 0.0 1.0 0.00 0.00 0.00 82 1014.9
20260904133804 82 355 0.0 1.0 0.00 0.00 0.00 83 1014.9
20260904133704 82 355 0.0 1.0 0.00 0.00 0.00 83 1014.9
20260904133603 82 355 0.0 1.0 0.00 0.00 0.00 83 1014.9
20260904133504 82 355 0.0 1.0 0.00 0.00 0.00 83 1015.0
20260904133319 82 355 0.0 1.0 0.00 0.00 0.00 83 1014.9
20260904133303 82 355 0.0 2.0 0.00 0.00 0.00 83 1014.9
20260904133204 82 355 0.0 2.0 0.00 0.00 0.00 83 1015.0
20260904133004 82 355 0.0 2.0 0.00 0.00 0.00 83 1014.9
20260904132903 82 355 1.0 2.0 0.00 0.00 0.00 84 1015.0
20260904132804 82 355 1.0 2.0 0.00 0.00 0.00 83 1015.0
20260904132718 81 355 1.0 2.0 0.00 0.00 0.00 83 1015.0
20260904132603 81 355 1.0 2.0 0.00 0.00 0.00 84 1014.9
20260904132404 81 355 1.0 2.0 0.00 0.00 0.00 84 1015.0
20260904132306 81 355 1.0 2.0 0.00 0.00 0.00 84 1015.0
20260904132203 81 355 1.0 2.0 0.00 0.00 0.00 85 1015.0
20260904132103 81 355 1.0 2.0 0.00 0.00 0.00 85 1015.0
20260904132004 80 355 1.0 2.0 0.00 0.00 0.00 85 1015.0
20260904131904 80 355 1.0 2.0 0.00 0.00 0.00 86 1015.0
20260904131803 80 355 1.0 2.0 0.00 0.00 0.00 86 1015.0
20260904131704 80 355 1.0 2.0 0.00 0.00 0.00 87 1015.0
20260904131604 80 355 1.0 2.0 0.00 0.00 0.00 87 1015.0
20260904131504 80 355 1.0 2.0 0.00 0.00 0.00 87 1015.0
20260904131303 79 355 0.0 2.0 0.00 0.00 0.00 88 1015.0
20260904131203 79 355 0.0 2.0 0.00 0.00 0.00 89 1014.9
20260904131003 79 355 0.0 2.0 0.00 0.00 0.00 89 1015.0
20260904130904 79 355 0.0 2.0 0.00 0.00 0.00 89 1015.0
20260904130804 78 355 0.0 2.0 0.00 0.00 0.00 89 1015.0
20260904130704 78 355 0.0 2.0 0.00 0.00 0.00 90 1015.0
20260904130603 78 355 0.0 2.0 0.00 0.00 0.00 90 1015.0
20260904130503 78 355 0.0 2.0 0.00 0.00 0.00 91 1015.0
20260904130303 77 355 0.0 2.0 0.00 0.00 0.00 91 1015.0
20260904130203 77 355 0.0 1.0 0.00 0.00 0.00 91 1015.0
20260904130104 77 355 0.0 2.0 0.00 0.00 0.00 92 1015.0
20260904130004 77 355 0.0 2.0 0.00 0.00 0.00 92 1015.0
20260904125904 77 355 0.0 2.0 0.00 0.00 0.00 92 1015.0
20260904125804 77 355 1.0 2.0 0.00 0.00 0.00 92 1015.0
20260904125704 77 355 1.0 2.0 0.00 0.00 0.00 92 1015.0
20260904125603 77 355 1.0 2.0 0.00 0.00 0.00 92 1014.9
20260904125503 76 355 1.0 2.0 0.00 0.00 0.00 93 1014.9
20260904125404 76 355 1.0 2.0 0.00 0.00 0.00 93 1014.9
20260904125316 76 355 1.0 2.0 0.00 0.00 0.00 93 1014.9
20260904125203 76 355 1.0 2.0 0.00 0.00 0.00 94 1014.9
20260904125118 76 355 1.0 2.0 0.00 0.00 0.00 94 1014.9
20260904124803 75 355 0.0 2.0 0.00 0.00 0.00 94 1014.9
20260904124718 75 355 0.0 2.0 0.00 0.00 0.00 94 1014.9
20260904124703 75 355 0.0 1.0 0.00 0.00 0.00 94 1014.9
20260904124603 75 355 0.0 1.0 0.00 0.00 0.00 94 1014.9
20260904124403 75 355 0.0 1.0 0.00 0.00 0.00 94 1014.9
20260904124303 75 355 0.0 1.0 0.00 0.00 0.00 94 1014.8
20260904124203 75 355 0.0 1.0 0.00 0.00 0.00 94 1014.8
20260904124103 75 355 0.0 1.0 0.00 0.00 0.00 94 1014.8
20260904124004 74 355 0.0 1.0 0.00 0.00 0.00 94 1014.7
20260904123904 74 355 0.0 1.0 0.00 0.00 0.00 94 1014.7
20260904123804 74 355 0.0 1.0 0.00 0.00 0.00 94 1014.8
20260904123704 74 355 0.0 1.0 0.00 0.00 0.00 94 1014.7
20260904123619 74 355 0.0 1.0 0.00 0.00 0.00 94 1014.7
20260904123504 74 355 0.0 1.0 0.00 0.00 0.00 94 1014.7
20260904123303 74 355 0.0 1.0 0.00 0.00 0.00 94 1014.7
20260904123203 74 355 0.0 1.0 0.00 0.00 0.00 94 1014.7
20260904123103 74 355 0.0 1.0 0.00 0.00 0.00 94 1014.7
20260904123004 74 355 0.0 1.0 0.00 0.00 0.00 94 1014.7
20260904122904 74 355 0.0 1.0 0.00 0.00 0.00 94 1014.7
20260904122803 74 0 0.0 0.0 0.00 0.00 0.00 94 1014.6
20260904122704 73 0 0.0 0.0 0.00 0.00 0.00 94 1014.7
20260904122604 73 0 0.0 0.0 0.00 0.00 0.00 94 1014.7
20260904122503 73 0 0.0 0.0 0.00 0.00 0.00 94 1014.6
20260904122404 73 0 0.0 0.0 0.00 0.00 0.00 94 1014.6
20260904122306 73 0 0.0 0.0 0.00 0.00 0.00 94 1014.6
20260904122204 73 0 0.0 0.0 0.00 0.00 0.00 94 1014.6
20260904122104 73 0 0.0 0.0 0.00 0.00 0.00 94 1014.6
20260904122004 73 0 0.0 0.0 0.00 0.00 0.00 94 1014.6
20260904121904 73 0 0.0 0.0 0.00 0.00 0.00 93 1014.6
20260904121803 73 0 0.0 0.0 0.00 0.00 0.00 93 1014.6
20260904121704 73 0 0.0 0.0 0.00 0.00 0.00 93 1014.6
20260904121603 73 0 0.0 0.0 0.00 0.00 0.00 93 1014.6
20260904121503 73 0 0.0 0.0 0.00 0.00 0.00 93 1014.6
20260904121403 73 0 0.0 0.0 0.00 0.00 0.00 93 1014.6
20260904121303 73 0 0.0 0.0 0.00 0.00 0.00 93 1014.6
20260904121203 72 0 0.0 0.0 0.00 0.00 0.00 93 1014.6
20260904121003 72 0 0.0 0.0 0.00 0.00 0.00 93 1014.6
20260904120904 72 0 0.0 0.0 0.00 0.00 0.00 93 1014.6
20260904120803 72 0 0.0 0.0 0.00 0.00 0.00 93 1014.6
20260904120603 72 0 0.0 0.0 0.00 0.00 0.00 93 1014.7
20260904120503 72 0 0.0 0.0 0.00 0.00 0.00 93 1014.7
20260904120404 72 0 0.0 0.0 0.00 0.00 0.00 93 1014.7
20260904120303 72 355 0.0 1.0 0.00 0.00 0.00 93 1014.7
20260904120204 72 355 0.0 1.0 0.00 0.00 0.00 93 1014.7
20260904120003 72 356 0.0 1.0 0.00 0.00 0.00 93 1014.7
20260904115903 72 356 0.0 1.0 0.00 0.00 0.00 93 1014.7
20260904115803 72 356 0.0 1.0 0.00 0.00 0.00 93 1014.7
20260904115703 72 356 0.0 1.0 0.00 0.00 0.00 93 1014.7
20260904115604 72 356 0.0 1.0 0.00 0.00 0.00 93 1014.7
20260904115504 72 356 0.0 1.0 0.00 0.00 0.00 93 1014.7
20260904115403 72 356 0.0 1.0 0.00 0.00 0.00 93 1014.6
20260904115306 72 356 0.0 1.0 0.00 0.00 0.00 93 1014.6
20260904115204 72 357 0.0 1.0 0.00 0.00 0.00 93 1014.7
20260904115104 72 4 0.0 1.0 0.00 0.00 0.00 93 1014.6
20260904115004 72 0 0.0 0.0 0.00 0.00 0.00 93 1014.6
20260904114903 72 0 0.0 0.0 0.00 0.00 0.00 93 1014.7
20260904114803 72 0 0.0 0.0 0.00 0.00 0.00 93 1014.6
20260904114704 72 0 0.0 0.0 0.00 0.00 0.00 93 1014.6
20260904114603 72 0 0.0 0.0 0.00 0.00 0.00 93 1014.6
20260904114503 72 0 0.0 0.0 0.00 0.00 0.00 93 1014.6
20260904114404 72 0 0.0 0.0 0.00 0.00 0.00 93 1014.5
20260904114203 72 0 0.0 0.0 0.00 0.00 0.00 93 1014.6
20260904114104 72 0 0.0 0.0 0.00 0.00 0.00 93 1014.5
20260904113903 72 0 0.0 0.0 0.00 0.00 0.00 93 1014.5
20260904113804 72 0 0.0 0.0 0.00 0.00 0.00 93 1014.5
20260904113603 72 0 0.0 0.0 0.00 0.00 0.00 93 1014.5
20260904113504 72 0 0.0 0.0 0.00 0.00 0.00 93 1014.5
20260904113403 72 0 0.0 0.0 0.00 0.00 0.00 93 1014.5
20260904113303 72 0 0.0 0.0 0.00 0.00 0.00 93 1014.5
20260904113104 72 0 0.0 0.0 0.00 0.00 0.00 92 1014.5
20260904113003 72 0 0.0 0.0 0.00 0.00 0.00 92 1014.4
20260904112804 72 0 0.0 0.0 0.00 0.00 0.00 92 1014.4
20260904112704 72 0 0.0 0.0 0.00 0.00 0.00 92 1014.4
20260904112603 72 0 0.0 0.0 0.00 0.00 0.00 92 1014.4
20260904112504 72 0 0.0 0.0 0.00 0.00 0.00 92 1014.3
20260904112403 72 0 0.0 0.0 0.00 0.00 0.00 92 1014.3
20260904112305 72 0 0.0 0.0 0.00 0.00 0.00 92 1014.2
20260904112203 72 0 0.0 0.0 0.00 0.00 0.00 92 1014.2
20260904112104 72 0 0.0 0.0 0.00 0.00 0.00 92 1014.2
20260904112003 72 0 0.0 0.0 0.00 0.00 0.00 92 1014.2
20260904111904 72 0 0.0 0.0 0.00 0.00 0.00 92 1014.2
20260904111803 72 0 0.0 0.0 0.00 0.00 0.00 91 1014.2
20260904111703 72 0 0.0 0.0 0.00 0.00 0.00 91 1014.1
20260904111603 72 0 0.0 0.0 0.00 0.00 0.00 91 1014.1
20260904111504 72 0 0.0 0.0 0.00 0.00 0.00 92 1014.1
20260904111404 72 0 0.0 0.0 0.00 0.00 0.00 92 1014.1
20260904111303 72 0 0.0 0.0 0.00 0.00 0.00 92 1014.1
20260904111203 72 0 0.0 0.0 0.00 0.00 0.00 92 1014.0
20260904111103 72 0 0.0 0.0 0.00 0.00 0.00 91 1014.0
20260904111004 72 0 0.0 0.0 0.00 0.00 0.00 91 1014.0
20260904110904 72 0 0.0 0.0 0.00 0.00 0.00 91 1014.0
20260904110803 72 0 0.0 0.0 0.00 0.00 0.00 91 1014.0
20260904110704 72 0 0.0 0.0 0.00 0.00 0.00 91 1014.0
20260904110603 72 0 0.0 0.0 0.00 0.00 0.00 91 1014.0
20260904110503 72 0 0.0 0.0 0.00 0.00 0.00 91 1014.0
20260904110403 72 0 0.0 0.0 0.00 0.00 0.00 91 1014.0
20260904110303 72 0 0.0 0.0 0.00 0.00 0.00 91 1013.9
20260904110203 72 0 0.0 0.0 0.00 0.00 0.00 91 1013.9
20260904110004 72 0 0.0 0.0 0.00 0.00 0.00 91 1013.9
20260904105903 72 0 0.0 0.0 0.00 0.00 0.00 91 1013.9
20260904105803 72 0 0.0 0.0 0.00 0.00 0.00 91 1013.9
20260904105703 72 0 0.0 0.0 0.00 0.00 0.00 91 1013.9
20260904105604 72 0 0.0 0.0 0.00 0.00 0.00 91 1013.9
20260904105503 72 0 0.0 0.0 0.00 0.00 0.00 91 1013.9
20260904105403 72 0 0.0 0.0 0.00 0.00 0.00 91 1013.9
20260904105306 72 0 0.0 0.0 0.00 0.00 0.00 92 1013.9
20260904105204 72 0 0.0 0.0 0.00 0.00 0.00 92 1013.9
20260904105103 73 0 0.0 0.0 0.00 0.00 0.00 92 1013.9
20260904105003 73 0 0.0 0.0 0.00 0.00 0.00 92 1013.8
20260904104904 73 0 0.0 0.0 0.00 0.00 0.00 92 1013.8
20260904104803 73 0 0.0 0.0 0.00 0.00 0.00 91 1013.8
20260904104703 73 0 0.0 0.0 0.00 0.00 0.00 91 1013.8
20260904104604 73 0 0.0 0.0 0.00 0.00 0.00 92 1013.8
20260904104504 73 0 0.0 0.0 0.00 0.00 0.00 91 1013.8
20260904104403 73 0 0.0 0.0 0.00 0.00 0.00 91 1013.7
20260904104303 73 0 0.0 0.0 0.00 0.00 0.00 91 1013.7
20260904104204 73 0 0.0 0.0 0.00 0.00 0.00 91 1013.7
20260904104104 73 0 0.0 0.0 0.00 0.00 0.00 91 1013.7
20260904104018 73 0 0.0 0.0 0.00 0.00 0.00 91 1013.7
20260904103903 73 0 0.0 0.0 0.00 0.00 0.00 91 1013.7
20260904103704 73 0 0.0 0.0 0.00 0.00 0.00 92 1013.7
20260904103605 73 0 0.0 0.0 0.00 0.00 0.00 92 1013.7
20260904103504 73 0 0.0 0.0 0.00 0.00 0.00 91 1013.7
20260904103404 73 0 0.0 0.0 0.00 0.00 0.00 91 1013.7
20260904103303 73 0 0.0 0.0 0.00 0.00 0.00 91 1013.7
20260904103204 73 0 0.0 0.0 0.00 0.00 0.00 91 1013.7
20260904103103 73 0 0.0 0.0 0.00 0.00 0.00 91 1013.7
20260904103003 73 0 0.0 0.0 0.00 0.00 0.00 91 1013.7
20260904102904 73 0 0.0 0.0 0.00 0.00 0.00 91 1013.7
20260904102803 73 0 0.0 0.0 0.00 0.00 0.00 91 1013.7
20260904102704 73 0 0.0 0.0 0.00 0.00 0.00 91 1013.7
20260904102603 73 0 0.0 0.0 0.00 0.00 0.00 91 1013.7
20260904102503 73 0 0.0 0.0 0.00 0.00 0.00 91 1013.7
20260904102403 73 0 0.0 0.0 0.00 0.00 0.00 91 1013.7
20260904102306 73 0 0.0 0.0 0.00 0.00 0.00 91 1013.7
20260904102203 73 0 0.0 0.0 0.00 0.00 0.00 91 1013.7
20260904102103 73 0 0.0 0.0 0.00 0.00 0.00 91 1013.7
20260904102003 73 0 0.0 0.0 0.00 0.00 0.00 91 1013.7
20260904101903 73 0 0.0 0.0 0.00 0.00 0.00 91 1013.6
20260904101803 73 0 0.0 0.0 0.00 0.00 0.00 91 1013.6
20260904101704 73 0 0.0 0.0 0.00 0.00 0.00 91 1013.6
20260904101603 73 0 0.0 0.0 0.00 0.00 0.00 91 1013.6
20260904101503 73 0 0.0 0.0 0.00 0.00 0.00 91 1013.6
20260904101404 73 0 0.0 0.0 0.00 0.00 0.00 91 1013.6
20260904101304 73 0 0.0 0.0 0.00 0.00 0.00 91 1013.6
20260904101204 73 0 0.0 0.0 0.00 0.00 0.00 91 1013.6
20260904101003 73 0 0.0 0.0 0.00 0.00 0.00 91 1013.7
20260904100903 73 0 0.0 0.0 0.00 0.00 0.00 91 1013.7
20260904100803 73 0 0.0 0.0 0.00 0.00 0.00 91 1013.7
20260904100703 73 0 0.0 0.0 0.00 0.00 0.00 91 1013.7
20260904100603 73 0 0.0 0.0 0.00 0.00 0.00 91 1013.7
20260904100503 73 0 0.0 0.0 0.00 0.00 0.00 91 1013.7
20260904100403 73 0 0.0 0.0 0.00 0.00 0.00 91 1013.7
20260904100303 73 0 0.0 0.0 0.00 0.00 0.00 91 1013.7
20260904100203 73 0 0.0 0.0 0.00 0.00 0.00 91 1013.7
20260904100104 73 0 0.0 0.0 0.00 0.00 0.00 91 1013.7
20260904100004 73 0 0.0 0.0 0.00 0.00 0.00 91 1013.7
20260904095903 73 0 0.0 0.0 0.00 0.00 0.00 91 1013.7
20260904095804 73 0 0.0 0.0 0.00 0.00 0.00 91 1013.7
20260904095704 73 0 0.0 0.0 0.00 0.00 0.00 91 1013.7
20260904095604 73 0 0.0 0.0 0.00 0.00 0.00 91 1013.7
20260904095503 73 0 0.0 0.0 0.00 0.00 0.00 91 1013.6
20260904095403 73 0 0.0 0.0 0.00 0.00 0.00 91 1013.6
20260904095306 73 0 0.0 0.0 0.00 0.00 0.00 91 1013.7
20260904095204 73 0 0.0 0.0 0.00 0.00 0.00 91 1013.7
20260904095103 73 0 0.0 0.0 0.00 0.00 0.00 91 1013.7
20260904095003 73 0 0.0 0.0 0.00 0.00 0.00 91 1013.7
20260904094904 73 0 0.0 0.0 0.00 0.00 0.00 91 1013.7
20260904094803 73 0 0.0 0.0 0.00 0.00 0.00 91 1013.7
20260904094704 73 0 0.0 0.0 0.00 0.00 0.00 91 1013.6
20260904094603 73 0 0.0 0.0 0.00 0.00 0.00 91 1013.6
20260904094503 73 0 0.0 0.0 0.00 0.00 0.00 91 1013.6
20260904094403 73 0 0.0 0.0 0.00 0.00 0.00 91 1013.6
20260904094303 73 0 0.0 0.0 0.00 0.00 0.00 91 1013.6
20260904094203 73 0 0.0 0.0 0.00 0.00 0.00 91 1013.7
20260904094103 73 0 0.0 0.0 0.00 0.00 0.00 91 1013.7
20260904094003 73 0 0.0 0.0 0.00 0.00 0.00 91 1013.7
20260904093903 74 0 0.0 0.0 0.00 0.00 0.00 91 1013.7
20260904093803 74 0 0.0 0.0 0.00 0.00 0.00 91 1013.7
20260904093703 74 0 0.0 0.0 0.00 0.00 0.00 91 1013.6
20260904093604 74 0 0.0 0.0 0.00 0.00 0.00 91 1013.6
20260904093419 74 0 0.0 0.0 0.00 0.00 0.00 91 1013.6
20260904093304 74 0 0.0 0.0 0.00 0.00 0.00 91 1013.6
20260904093103 74 0 0.0 0.0 0.00 0.00 0.00 90 1013.6
20260904093003 74 0 0.0 0.0 0.00 0.00 0.00 90 1013.6
20260904092804 74 0 0.0 0.0 0.00 0.00 0.00 90 1013.6
20260904092704 74 0 0.0 0.0 0.00 0.00 0.00 90 1013.6
20260904092603 74 0 0.0 0.0 0.00 0.00 0.00 90 1013.6
20260904092503 74 0 0.0 0.0 0.00 0.00 0.00 90 1013.6
20260904092306 74 0 0.0 0.0 0.00 0.00 0.00 90 1013.5
20260904092203 74 0 0.0 0.0 0.00 0.00 0.00 90 1013.5
20260904092103 74 0 0.0 0.0 0.00 0.00 0.00 90 1013.6
20260904091903 74 0 0.0 0.0 0.00 0.00 0.00 90 1013.5
20260904091803 74 0 0.0 0.0 0.00 0.00 0.00 90 1013.5
20260904091503 74 0 0.0 0.0 0.00 0.00 0.00 90 1013.5
20260904091403 74 0 0.0 0.0 0.00 0.00 0.00 90 1013.5
20260904091303 74 0 0.0 0.0 0.00 0.00 0.00 90 1013.5
20260904091203 74 0 0.0 0.0 0.00 0.00 0.00 90 1013.5
20260904091103 74 0 0.0 0.0 0.00 0.00 0.00 90 1013.6
20260904091004 74 0 0.0 0.0 0.00 0.00 0.00 90 1013.6
20260904090903 74 0 0.0 0.0 0.00 0.00 0.00 90 1013.6
20260904090803 74 0 0.0 0.0 0.00 0.00 0.00 90 1013.6
20260904090703 74 0 0.0 0.0 0.00 0.00 0.00 90 1013.6
20260904090504 74 0 0.0 0.0 0.00 0.00 0.00 90 1013.6
20260904090404 74 0 0.0 0.0 0.00 0.00 0.00 90 1013.6
20260904090304 74 0 0.0 0.0 0.00 0.00 0.00 90 1013.5
20260904090204 74 0 0.0 0.0 0.00 0.00 0.00 90 1013.5
20260904090003 74 0 0.0 0.0 0.00 0.00 0.00 90 1013.5
20260904085904 74 0 0.0 0.0 0.00 0.00 0.00 90 1013.5
20260904085703 74 0 0.0 0.0 0.00 0.00 0.00 90 1013.5
20260904085603 74 0 0.0 0.0 0.00 0.00 0.00 90 1013.5
20260904085503 74 0 0.0 0.0 0.00 0.00 0.00 90 1013.5
20260904085403 74 0 0.0 0.0 0.00 0.00 0.00 90 1013.5
20260904085305 74 0 0.0 0.0 0.00 0.00 0.00 90 1013.5
20260904085204 74 0 0.0 0.0 0.00 0.00 0.00 90 1013.5
20260904085103 74 0 0.0 0.0 0.00 0.00 0.00 90 1013.5
20260904084803 74 0 0.0 0.0 0.00 0.00 0.00 90 1013.5
20260904084703 74 0 0.0 0.0 0.00 0.00 0.00 90 1013.5
20260904084603 74 0 0.0 0.0 0.00 0.00 0.00 90 1013.5
20260904084503 74 0 0.0 0.0 0.00 0.00 0.00 90 1013.4
20260904084403 74 0 0.0 0.0 0.00 0.00 0.00 90 1013.4
20260904084303 74 0 0.0 0.0 0.00 0.00 0.00 90 1013.4
20260904084103 74 0 0.0 0.0 0.00 0.00 0.00 90 1013.4
20260904084003 74 0 0.0 0.0 0.00 0.00 0.00 90 1013.4
20260904083903 74 0 0.0 0.0 0.00 0.00 0.00 90 1013.3
20260904083803 74 0 0.0 0.0 0.00 0.00 0.00 90 1013.3
20260904083703 74 0 0.0 0.0 0.00 0.00 0.00 90 1013.3
20260904083603 74 0 0.0 0.0 0.00 0.00 0.00 90 1013.3
20260904083503 74 0 0.0 0.0 0.00 0.00 0.00 90 1013.3
20260904083203 74 0 0.0 0.0 0.00 0.00 0.00 90 1013.3
20260904083103 74 0 0.0 0.0 0.00 0.00 0.00 90 1013.3
20260904082903 74 0 0.0 0.0 0.00 0.00 0.00 90 1013.3
20260904082804 74 0 0.0 0.0 0.00 0.00 0.00 90 1013.3
20260904082704 74 0 0.0 0.0 0.00 0.00 0.00 90 1013.3
20260904082603 74 0 0.0 0.0 0.00 0.00 0.00 90 1013.3
20260904082503 74 0 0.0 0.0 0.00 0.00 0.00 90 1013.3
20260904082404 74 0 0.0 0.0 0.00 0.00 0.00 89 1013.3
20260904082306 74 0 0.0 0.0 0.00 0.00 0.00 89 1013.3
20260904082217 74 0 0.0 0.0 0.00 0.00 0.00 89 1013.3
20260904082104 74 0 0.0 0.0 0.00 0.00 0.00 89 1013.3
20260904081903 74 0 0.0 0.0 0.00 0.00 0.00 89 1013.4
20260904081803 74 0 0.0 0.0 0.00 0.00 0.00 89 1013.4
20260904081703 74 0 0.0 0.0 0.00 0.00 0.00 89 1013.4
20260904081617 74 0 0.0 0.0 0.00 0.00 0.00 89 1013.4
20260904081503 74 0 0.0 0.0 0.00 0.00 0.00 89 1013.4
20260904081204 74 0 0.0 0.0 0.00 0.00 0.00 89 1013.3
20260904081103 74 0 0.0 0.0 0.00 0.00 0.00 89 1013.4
20260904081004 74 0 0.0 0.0 0.00 0.00 0.00 89 1013.4
20260904080904 74 0 0.0 0.0 0.00 0.00 0.00 89 1013.4
20260904080804 74 0 0.0 0.0 0.00 0.00 0.00 89 1013.4
20260904080718 74 0 0.0 0.0 0.00 0.00 0.00 89 1013.4
20260904080704 75 0 0.0 0.0 0.00 0.00 0.00 89 1013.4
20260904080604 75 0 0.0 0.0 0.00 0.00 0.00 89 1013.4
20260904080403 75 0 0.0 0.0 0.00 0.00 0.00 89 1013.3
20260904080319 75 0 0.0 0.0 0.00 0.00 0.00 89 1013.3
20260904080304 75 0 0.0 0.0 0.00 0.00 0.00 89 1013.4
20260904080204 75 0 0.0 0.0 0.00 0.00 0.00 89 1013.4
20260904080004 75 0 0.0 0.0 0.00 0.00 0.00 89 1013.3
20260904075904 75 0 0.0 0.0 0.00 0.00 0.00 89 1013.3
20260904075804 75 0 0.0 0.0 0.00 0.00 0.00 89 1013.3
20260904075703 75 0 0.0 0.0 0.00 0.00 0.00 89 1013.3
20260904075603 75 0 0.0 0.0 0.00 0.00 0.00 89 1013.4
20260904075403 75 0 0.0 0.0 0.00 0.00 0.00 89 1013.3
20260904075306 75 0 0.0 0.0 0.00 0.00 0.00 89 1013.3
20260904075203 75 0 0.0 0.0 0.00 0.00 0.00 89 1013.3
20260904075118 75 0 0.0 0.0 0.00 0.00 0.00 89 1013.4
20260904075004 75 0 0.0 0.0 0.00 0.00 0.00 89 1013.4
20260904074803 75 0 0.0 0.0 0.00 0.00 0.00 89 1013.3
20260904074703 75 0 0.0 0.0 0.00 0.00 0.00 89 1013.3
20260904074603 75 0 0.0 0.0 0.00 0.00 0.00 89 1013.3
20260904074504 75 0 0.0 0.0 0.00 0.00 0.00 89 1013.3
20260904074403 75 0 0.0 0.0 0.00 0.00 0.00 89 1013.3
20260904074304 75 0 0.0 0.0 0.00 0.00 0.00 89 1013.4
20260904074204 75 0 0.0 0.0 0.00 0.00 0.00 89 1013.4
20260904074103 75 0 0.0 0.0 0.00 0.00 0.00 89 1013.4
20260904074003 75 0 0.0 0.0 0.00 0.00 0.00 89 1013.3
20260904073903 75 0 0.0 0.0 0.00 0.00 0.00 88 1013.3
20260904073803 75 0 0.0 0.0 0.00 0.00 0.00 88 1013.4
20260904073703 75 0 0.0 0.0 0.00 0.00 0.00 88 1013.4
20260904073603 75 0 0.0 0.0 0.00 0.00 0.00 88 1013.3
20260904073519 75 0 0.0 0.0 0.00 0.00 0.00 88 1013.3
20260904073404 75 0 0.0 0.0 0.00 0.00 0.00 88 1013.3
20260904073203 75 0 0.0 0.0 0.00 0.00 0.00 88 1013.3
20260904073103 75 0 0.0 0.0 0.00 0.00 0.00 88 1013.3
20260904073003 75 0 0.0 0.0 0.00 0.00 0.00 88 1013.3
20260904072903 75 0 0.0 0.0 0.00 0.00 0.00 88 1013.3
20260904072703 75 0 0.0 0.0 0.00 0.00 0.00 88 1013.4
20260904072603 75 0 0.0 0.0 0.00 0.00 0.00 88 1013.4
20260904072504 75 0 0.0 0.0 0.00 0.00 0.00 88 1013.3
20260904072403 75 0 0.0 0.0 0.00 0.00 0.00 88 1013.3
20260904072305 75 0 0.0 0.0 0.00 0.00 0.00 88 1013.3
20260904072203 75 0 0.0 0.0 0.00 0.00 0.00 88 1013.3
20260904072104 75 0 0.0 0.0 0.00 0.00 0.00 88 1013.3
20260904072003 75 0 0.0 0.0 0.00 0.00 0.00 88 1013.3
20260904071903 75 0 0.0 0.0 0.00 0.00 0.00 88 1013.3
20260904071803 75 0 0.0 0.0 0.00 0.00 0.00 88 1013.3
20260904071703 75 0 0.0 0.0 0.00 0.00 0.00 88 1013.3
20260904071603 75 0 0.0 0.0 0.00 0.00 0.00 88 1013.3
20260904071403 75 0 0.0 0.0 0.00 0.00 0.00 88 1013.3
20260904071303 75 0 0.0 0.0 0.00 0.00 0.00 88 1013.3
20260904071203 75 0 0.0 0.0 0.00 0.00 0.00 88 1013.2
20260904071104 75 0 0.0 0.0 0.00 0.00 0.00 88 1013.2
20260904071003 75 0 0.0 0.0 0.00 0.00 0.00 88 1013.3
20260904070903 75 0 0.0 0.0 0.00 0.00 0.00 88 1013.3
20260904070804 75 0 0.0 0.0 0.00 0.00 0.00 88 1013.3
20260904070703 75 0 0.0 0.0 0.00 0.00 0.00 88 1013.3
20260904070604 75 0 0.0 0.0 0.00 0.00 0.00 88 1013.3
20260904070504 75 0 0.0 0.0 0.00 0.00 0.00 88 1013.3
20260904070303 75 0 0.0 0.0 0.00 0.00 0.00 88 1013.3
20260904070203 75 0 0.0 0.0 0.00 0.00 0.00 88 1013.3
20260904070003 75 0 0.0 0.0 0.00 0.00 0.00 88 1013.3
20260904065903 75 0 0.0 0.0 0.00 0.00 0.00 88 1013.3
20260904065817 76 0 0.0 0.0 0.00 0.00 0.00 88 1013.3
20260904065803 75 0 0.0 0.0 0.00 0.00 0.00 88 1013.3
20260904065617 75 0 0.0 0.0 0.00 0.00 0.00 87 1013.3
20260904065504 76 0 0.0 0.0 0.00 0.00 0.00 88 1013.3
20260904065306 76 0 0.0 0.0 0.00 0.00 0.00 87 1013.4
20260904065204 76 0 0.0 0.0 0.00 0.00 0.00 87 1013.4
20260904065103 76 0 0.0 0.0 0.00 0.00 0.00 87 1013.4
20260904065003 76 0 0.0 0.0 0.00 0.00 0.00 87 1013.4
20260904064903 76 0 0.0 0.0 0.00 0.00 0.00 87 1013.3
20260904064703 76 0 0.0 0.0 0.00 0.00 0.00 87 1013.4
20260904064603 76 0 0.0 0.0 0.00 0.00 0.00 87 1013.4
20260904064503 76 0 0.0 0.0 0.00 0.00 0.00 88 1013.4
20260904064318 76 0 0.0 0.0 0.00 0.00 0.00 88 1013.4
20260904064204 76 0 0.0 0.0 0.00 0.00 0.00 88 1013.4
20260904064004 76 0 0.0 0.0 0.00 0.00 0.00 88 1013.5
20260904063903 76 0 0.0 0.0 0.00 0.00 0.00 88 1013.5
20260904063803 76 0 0.0 0.0 0.00 0.00 0.00 88 1013.4
20260904063703 76 0 0.0 0.0 0.00 0.00 0.00 87 1013.4
20260904063603 76 0 0.0 0.0 0.00 0.00 0.00 87 1013.5
20260904063504 76 0 0.0 0.0 0.00 0.00 0.00 87 1013.5
20260904063403 76 0 0.0 0.0 0.00 0.00 0.00 87 1013.5
20260904063303 76 0 0.0 0.0 0.00 0.00 0.00 87 1013.6
20260904063204 76 0 0.0 0.0 0.00 0.00 0.00 87 1013.6
20260904063103 76 0 0.0 0.0 0.00 0.00 0.00 87 1013.5
20260904063004 76 0 0.0 0.0 0.00 0.00 0.00 87 1013.5
20260904062904 76 0 0.0 0.0 0.00 0.00 0.00 87 1013.6
20260904062803 76 0 0.0 0.0 0.00 0.00 0.00 87 1013.5
20260904062704 76 0 0.0 0.0 0.00 0.00 0.00 87 1013.5
20260904062603 76 0 0.0 0.0 0.00 0.00 0.00 87 1013.5
20260904062504 76 0 0.0 0.0 0.00 0.00 0.00 87 1013.5
20260904062403 76 0 0.0 0.0 0.00 0.00 0.00 87 1013.5
20260904062306 76 0 0.0 0.0 0.00 0.00 0.00 87 1013.6
20260904062204 76 0 0.0 0.0 0.00 0.00 0.00 87 1013.6
20260904062104 76 0 0.0 0.0 0.00 0.00 0.00 87 1013.6
20260904062003 76 0 0.0 0.0 0.00 0.00 0.00 87 1013.6
20260904061903 76 0 0.0 0.0 0.00 0.00 0.00 87 1013.6
20260904061804 76 0 0.0 0.0 0.00 0.00 0.00 86 1013.6
20260904061703 76 0 0.0 0.0 0.00 0.00 0.00 86 1013.6
20260904061603 76 0 0.0 0.0 0.00 0.00 0.00 86 1013.6
20260904061503 76 0 0.0 0.0 0.00 0.00 0.00 86 1013.5
20260904061403 76 0 0.0 0.0 0.00 0.00 0.00 86 1013.5
20260904061304 76 0 0.0 0.0 0.00 0.00 0.00 86 1013.5
20260904061203 76 0 0.0 0.0 0.00 0.00 0.00 86 1013.5
20260904061103 76 0 0.0 0.0 0.00 0.00 0.00 86 1013.5
20260904061004 76 0 0.0 0.0 0.00 0.00 0.00 86 1013.5
20260904060916 76 0 0.0 0.0 0.00 0.00 0.00 86 1013.5
20260904060803 76 0 0.0 0.0 0.00 0.00 0.00 86 1013.5
20260904060603 76 0 0.0 0.0 0.00 0.00 0.00 86 1013.5
20260904060503 76 0 0.0 0.0 0.00 0.00 0.00 86 1013.6
20260904060303 76 0 0.0 0.0 0.00 0.00 0.00 86 1013.6
20260904060203 76 0 0.0 0.0 0.00 0.00 0.00 86 1013.6
20260904060103 76 0 0.0 0.0 0.00 0.00 0.00 86 1013.6
20260904060003 76 0 0.0 0.0 0.00 0.00 0.00 86 1013.6
20260904055803 76 0 0.0 0.0 0.00 0.00 0.00 86 1013.6
20260904055703 76 0 0.0 0.0 0.00 0.00 0.00 86 1013.6
20260904055603 76 0 0.0 0.0 0.00 0.00 0.00 86 1013.6
20260904055503 76 0 0.0 0.0 0.00 0.00 0.00 86 1013.7
20260904055403 76 0 0.0 0.0 0.00 0.00 0.00 86 1013.7
20260904055306 76 0 0.0 0.0 0.00 0.00 0.00 86 1013.7
20260904055203 76 0 0.0 0.0 0.00 0.00 0.00 86 1013.6
20260904055104 77 0 0.0 0.0 0.00 0.00 0.00 86 1013.6
20260904055003 76 0 0.0 0.0 0.00 0.00 0.00 86 1013.6
20260904054903 76 0 0.0 0.0 0.00 0.00 0.00 86 1013.6
20260904054817 77 0 0.0 0.0 0.00 0.00 0.00 85 1013.6
20260904054803 76 0 0.0 0.0 0.00 0.00 0.00 85 1013.6
20260904054703 77 0 0.0 0.0 0.00 0.00 0.00 85 1013.5
20260904054504 77 0 0.0 0.0 0.00 0.00 0.00 85 1013.5
20260904054403 77 0 0.0 0.0 0.00 0.00 0.00 85 1013.6
20260904054303 77 0 0.0 0.0 0.00 0.00 0.00 85 1013.6
20260904054203 77 0 0.0 0.0 0.00 0.00 0.00 85 1013.6
20260904054103 77 0 0.0 0.0 0.00 0.00 0.00 85 1013.6
20260904054004 77 0 0.0 0.0 0.00 0.00 0.00 85 1013.6
20260904053903 77 0 0.0 0.0 0.00 0.00 0.00 85 1013.6
20260904053703 77 0 0.0 0.0 0.00 0.00 0.00 85 1013.7
20260904053618 77 0 0.0 0.0 0.00 0.00 0.00 85 1013.7
20260904053603 77 0 0.0 0.0 0.00 0.00 0.00 85 1013.6
20260904053503 77 0 0.0 0.0 0.00 0.00 0.00 85 1013.6
20260904053419 77 0 0.0 0.0 0.00 0.00 0.00 85 1013.7
20260904053303 77 0 0.0 0.0 0.00 0.00 0.00 84 1013.7
20260904053104 77 0 0.0 0.0 0.00 0.00 0.00 85 1013.7
20260904053004 77 0 0.0 0.0 0.00 0.00 0.00 85 1013.7
20260904052904 77 0 0.0 0.0 0.00 0.00 0.00 84 1013.8
20260904052803 77 0 0.0 0.0 0.00 0.00 0.00 84 1013.8
20260904052703 77 0 0.0 0.0 0.00 0.00 0.00 84 1013.8
20260904052603 77 0 0.0 0.0 0.00 0.00 0.00 84 1013.8
20260904052504 77 0 0.0 0.0 0.00 0.00 0.00 84 1013.8
20260904052404 77 0 0.0 0.0 0.00 0.00 0.00 84 1013.8
20260904052307 77 0 0.0 0.0 0.00 0.00 0.00 84 1013.8
20260904052104 77 0 0.0 0.0 0.00 0.00 0.00 85 1013.8
20260904052003 77 0 0.0 0.0 0.00 0.00 0.00 85 1013.8
20260904051903 77 0 0.0 0.0 0.00 0.00 0.00 85 1013.8
20260904051804 77 0 0.0 0.0 0.00 0.00 0.00 85 1013.8
20260904051703 77 0 0.0 0.0 0.00 0.00 0.00 85 1013.8
20260904051603 77 0 0.0 0.0 0.00 0.00 0.00 85 1013.8
20260904051503 77 0 0.0 0.0 0.00 0.00 0.00 85 1013.8
20260904051404 77 0 0.0 0.0 0.00 0.00 0.00 84 1013.8
20260904051304 77 0 0.0 0.0 0.00 0.00 0.00 84 1013.8
20260904051103 77 0 0.0 0.0 0.00 0.00 0.00 84 1013.8
20260904051004 77 0 0.0 0.0 0.00 0.00 0.00 84 1013.8
20260904050903 77 0 0.0 0.0 0.00 0.00 0.00 84 1013.8
20260904050803 77 0 0.0 0.0 0.00 0.00 0.00 84 1013.8
20260904050603 77 0 0.0 0.0 0.00 0.00 0.00 84 1013.8
20260904050503 77 0 0.0 0.0 0.00 0.00 0.00 84 1013.8
20260904050403 77 0 0.0 0.0 0.00 0.00 0.00 84 1013.7
20260904050304 77 0 0.0 0.0 0.00 0.00 0.00 84 1013.8
20260904050004 77 0 0.0 0.0 0.00 0.00 0.00 84 1013.8
20260904045904 77 0 0.0 0.0 0.00 0.00 0.00 84 1013.8
20260904045803 77 0 0.0 0.0 0.00 0.00 0.00 84 1013.8
20260904045703 77 0 0.0 0.0 0.00 0.00 0.00 84 1013.8
20260904045603 78 0 0.0 0.0 0.00 0.00 0.00 84 1013.8
20260904045504 77 0 0.0 0.0 0.00 0.00 0.00 84 1013.8
20260904045404 77 0 0.0 0.0 0.00 0.00 0.00 84 1013.8
20260904045307 78 0 0.0 0.0 0.00 0.00 0.00 84 1013.8
20260904045203 78 0 0.0 0.0 0.00 0.00 0.00 84 1013.8
20260904045103 78 0 0.0 0.0 0.00 0.00 0.00 84 1013.8
20260904045003 78 0 0.0 0.0 0.00 0.00 0.00 84 1013.8
20260904044903 78 0 0.0 0.0 0.00 0.00 0.00 84 1013.8
20260904044804 78 0 0.0 0.0 0.00 0.00 0.00 84 1013.8
20260904044704 78 0 0.0 0.0 0.00 0.00 0.00 84 1013.8
20260904044604 78 0 0.0 0.0 0.00 0.00 0.00 84 1013.8
20260904044503 78 0 0.0 0.0 0.00 0.00 0.00 84 1013.8
20260904044403 78 0 0.0 0.0 0.00 0.00 0.00 84 1013.9
20260904044303 78 0 0.0 0.0 0.00 0.00 0.00 84 1013.9
20260904044203 78 0 0.0 0.0 0.00 0.00 0.00 84 1013.9
20260904044005 78 0 0.0 0.0 0.00 0.00 0.00 84 1013.9
20260904043904 78 0 0.0 0.0 0.00 0.00 0.00 84 1013.9
20260904043803 78 0 0.0 0.0 0.00 0.00 0.00 84 1013.9
20260904043603 78 0 0.0 0.0 0.00 0.00 0.00 84 1014.0
20260904043503 78 0 0.0 0.0 0.00 0.00 0.00 84 1014.0
20260904043303 78 0 0.0 0.0 0.00 0.00 0.00 84 1014.0
20260904043203 78 0 0.0 0.0 0.00 0.00 0.00 84 1014.0
20260904043003 78 0 0.0 0.0 0.00 0.00 0.00 84 1014.0
20260904042903 78 0 0.0 0.0 0.00 0.00 0.00 83 1014.0
20260904042803 78 0 0.0 0.0 0.00 0.00 0.00 83 1014.0
20260904042703 78 0 0.0 0.0 0.00 0.00 0.00 83 1014.0
20260904042604 78 0 0.0 0.0 0.00 0.00 0.00 83 1014.0
20260904042518 78 0 0.0 0.0 0.00 0.00 0.00 83 1014.0
20260904042504 78 0 0.0 0.0 0.00 0.00 0.00 83 1013.9
20260904042404 78 0 0.0 0.0 0.00 0.00 0.00 83 1013.9
20260904042203 78 0 0.0 0.0 0.00 0.00 0.00 83 1014.0
20260904042103 78 0 0.0 0.0 0.00 0.00 0.00 83 1014.0
20260904042003 78 0 0.0 0.0 0.00 0.00 0.00 83 1013.9
20260904041904 78 0 0.0 0.0 0.00 0.00 0.00 83 1013.9
20260904041804 78 0 0.0 0.0 0.00 0.00 0.00 83 1014.0
20260904041703 78 0 0.0 0.0 0.00 0.00 0.00 83 1014.0
20260904041604 78 0 0.0 0.0 0.00 0.00 0.00 83 1014.0
20260904041404 78 0 0.0 0.0 0.00 0.00 0.00 83 1014.0
20260904041303 78 0 0.0 0.0 0.00 0.00 0.00 83 1014.0
20260904041203 78 0 0.0 0.0 0.00 0.00 0.00 83 1014.0
20260904041104 78 0 0.0 0.0 0.00 0.00 0.00 83 1014.0
20260904040904 78 0 0.0 0.0 0.00 0.00 0.00 82 1014.0
20260904040804 78 0 0.0 0.0 0.00 0.00 0.00 82 1014.0
20260904040704 78 0 0.0 0.0 0.00 0.00 0.00 82 1014.0
20260904040504 78 0 0.0 0.0 0.00 0.00 0.00 82 1014.1
20260904040403 78 0 0.0 0.0 0.00 0.00 0.00 82 1014.1
20260904040303 78 0 0.0 0.0 0.00 0.00 0.00 82 1014.0
20260904040203 78 0 0.0 0.0 0.00 0.00 0.00 82 1014.0
20260904040103 78 0 0.0 0.0 0.00 0.00 0.00 82 1014.0
20260904040004 78 0 0.0 0.0 0.00 0.00 0.00 82 1014.0
20260904035903 78 0 0.0 0.0 0.00 0.00 0.00 82 1014.0
20260904035803 78 0 0.0 0.0 0.00 0.00 0.00 82 1014.0
20260904035704 78 0 0.0 0.0 0.00 0.00 0.00 82 1014.0
20260904035603 78 0 0.0 0.0 0.00 0.00 0.00 82 1014.0
20260904035503 78 0 0.0 0.0 0.00 0.00 0.00 82 1014.0
20260904035403 78 0 0.0 0.0 0.00 0.00 0.00 82 1014.0
20260904035306 78 0 0.0 0.0 0.00 0.00 0.00 82 1014.0
20260904035204 78 0 0.0 0.0 0.00 0.00 0.00 82 1014.0
20260904035003 79 0 0.0 0.0 0.00 0.00 0.00 82 1014.0
20260904034903 79 0 0.0 0.0 0.00 0.00 0.00 82 1014.0
20260904034804 79 0 0.0 0.0 0.00 0.00 0.00 82 1014.0
20260904034703 79 0 0.0 0.0 0.00 0.00 0.00 82 1014.0
20260904034503 79 0 0.0 0.0 0.00 0.00 0.00 82 1014.0
20260904034403 79 0 0.0 0.0 0.00 0.00 0.00 82 1014.0
20260904034303 79 0 0.0 0.0 0.00 0.00 0.00 82 1014.0
20260904034203 79 0 0.0 0.0 0.00 0.00 0.00 82 1014.0
20260904034003 79 0 0.0 0.0 0.00 0.00 0.00 82 1014.0
20260904033903 79 0 0.0 0.0 0.00 0.00 0.00 81 1014.0
20260904033704 79 0 0.0 0.0 0.00 0.00 0.00 81 1014.0
20260904033604 79 0 0.0 0.0 0.00 0.00 0.00 81 1014.0
20260904033503 79 0 0.0 0.0 0.00 0.00 0.00 82 1014.0
20260904033404 79 0 0.0 0.0 0.00 0.00 0.00 82 1014.0
20260904033304 79 0 0.0 0.0 0.00 0.00 0.00 82 1014.0
20260904033204 79 0 0.0 0.0 0.00 0.00 0.00 82 1014.0
20260904033118 79 0 0.0 0.0 0.00 0.00 0.00 81 1014.0
20260904033103 79 0 0.0 0.0 0.00 0.00 0.00 81 1014.1
20260904033003 79 0 0.0 0.0 0.00 0.00 0.00 81 1014.1
20260904032803 79 0 0.0 0.0 0.00 0.00 0.00 80 1014.0
20260904032703 79 0 0.0 0.0 0.00 0.00 0.00 81 1014.1
20260904032604 79 0 0.0 0.0 0.00 0.00 0.00 81 1014.1
20260904032503 79 0 0.0 0.0 0.00 0.00 0.00 80 1014.1
20260904032305 79 0 0.0 0.0 0.00 0.00 0.00 80 1014.2
20260904032203 79 0 0.0 0.0 0.00 0.00 0.00 80 1014.2
20260904032104 79 0 0.0 0.0 0.00 0.00 0.00 80 1014.2
20260904032003 79 0 0.0 0.0 0.00 0.00 0.00 80 1014.2
20260904031919 79 0 0.0 0.0 0.00 0.00 0.00 80 1014.2
20260904031804 79 0 0.0 0.0 0.00 0.00 0.00 80 1014.2
20260904031603 79 0 0.0 0.0 0.00 0.00 0.00 80 1014.2
20260904031504 79 0 0.0 0.0 0.00 0.00 0.00 80 1014.2
20260904031404 79 0 0.0 0.0 0.00 0.00 0.00 80 1014.2
20260904031303 79 0 0.0 0.0 0.00 0.00 0.00 80 1014.2
20260904031203 79 0 0.0 0.0 0.00 0.00 0.00 80 1014.2
20260904031103 79 0 0.0 0.0 0.00 0.00 0.00 80 1014.2
20260904031003 79 0 0.0 0.0 0.00 0.00 0.00 80 1014.2
20260904030904 79 0 0.0 0.0 0.00 0.00 0.00 80 1014.2
20260904030804 79 0 0.0 0.0 0.00 0.00 0.00 80 1014.1
20260904030704 79 0 0.0 0.0 0.00 0.00 0.00 80 1014.1
20260904030604 79 0 0.0 0.0 0.00 0.00 0.00 80 1014.1
20260904030504 79 0 0.0 0.0 0.00 0.00 0.00 80 1014.1
20260904030304 80 0 0.0 0.0 0.00 0.00 0.00 80 1014.1
20260904030204 80 0 0.0 0.0 0.00 0.00 0.00 80 1014.1
20260904030104 80 0 0.0 0.0 0.00 0.00 0.00 80 1014.1
20260904030016 80 0 0.0 0.0 0.00 0.00 0.00 80 1014.1
20260904025903 80 0 0.0 0.0 0.00 0.00 0.00 80 1014.1
20260904025704 80 0 0.0 0.0 0.00 0.00 0.00 80 1014.1
20260904025603 80 0 0.0 0.0 0.00 0.00 0.00 80 1014.1
20260904025504 80 0 0.0 0.0 0.00 0.00 0.00 80 1014.1
20260904025403 80 0 0.0 0.0 0.00 0.00 0.00 80 1014.1
20260904025306 80 0 0.0 0.0 0.00 0.00 0.00 80 1014.1
20260904025203 80 0 0.0 0.0 0.00 0.00 0.00 80 1014.1
20260904025103 80 0 0.0 0.0 0.00 0.00 0.00 80 1014.1
20260904025004 80 0 0.0 0.0 0.00 0.00 0.00 80 1014.2
20260904024803 80 0 0.0 0.0 0.00 0.00 0.00 80 1014.1
20260904024704 80 0 0.0 0.0 0.00 0.00 0.00 80 1014.2
20260904024603 80 0 0.0 0.0 0.00 0.00 0.00 80 1014.2
20260904024503 80 0 0.0 0.0 0.00 0.00 0.00 80 1014.1
20260904024404 80 0 0.0 0.0 0.00 0.00 0.00 80 1014.1
20260904024203 80 0 0.0 0.0 0.00 0.00 0.00 79 1014.1
20260904024104 80 0 0.0 0.0 0.00 0.00 0.00 79 1014.1
20260904024004 80 0 0.0 0.0 0.00 0.00 0.00 79 1014.1
20260904023903 80 0 0.0 0.0 0.00 0.00 0.00 79 1014.1
20260904023804 80 0 0.0 0.0 0.00 0.00 0.00 79 1014.0
20260904023603 80 0 0.0 0.0 0.00 0.00 0.00 79 1014.1
20260904023503 80 0 0.0 0.0 0.00 0.00 0.00 79 1014.1
20260904023403 80 0 0.0 0.0 0.00 0.00 0.00 79 1014.0
20260904023303 80 0 0.0 0.0 0.00 0.00 0.00 79 1014.0
20260904023204 80 0 0.0 0.0 0.00 0.00 0.00 79 1014.0
20260904023103 80 0 0.0 0.0 0.00 0.00 0.00 79 1014.0
20260904023003 80 0 0.0 0.0 0.00 0.00 0.00 79 1014.0
20260904022904 80 0 0.0 0.0 0.00 0.00 0.00 79 1014.0
20260904022803 80 0 0.0 0.0 0.00 0.00 0.00 79 1014.0
20260904022704 80 0 0.0 0.0 0.00 0.00 0.00 78 1014.0
20260904022503 80 0 0.0 0.0 0.00 0.00 0.00 78 1014.0
20260904022403 81 0 0.0 0.0 0.00 0.00 0.00 78 1014.0
20260904022306 81 0 0.0 0.0 0.00 0.00 0.00 78 1014.0
20260904022204 81 0 0.0 0.0 0.00 0.00 0.00 78 1014.0
20260904022104 81 0 0.0 0.0 0.00 0.00 0.00 77 1014.0
20260904022003 81 0 0.0 0.0 0.00 0.00 0.00 77 1013.9
20260904021903 81 0 0.0 0.0 0.00 0.00 0.00 78 1014.0
20260904021803 81 0 0.0 0.0 0.00 0.00 0.00 78 1014.0
20260904021503 81 0 0.0 0.0 0.00 0.00 0.00 77 1014.0
20260904021403 81 0 0.0 0.0 0.00 0.00 0.00 77 1014.0
20260904021304 81 0 0.0 0.0 0.00 0.00 0.00 77 1014.0
20260904021204 81 0 0.0 0.0 0.00 0.00 0.00 77 1014.0
20260904021118 81 0 0.0 0.0 0.00 0.00 0.00 77 1014.0
20260904021003 81 0 0.0 0.0 0.00 0.00 0.00 77 1014.0
20260904020804 81 0 0.0 0.0 0.00 0.00 0.00 77 1013.9
20260904020703 81 0 0.0 0.0 0.00 0.00 0.00 77 1014.0
20260904020603 81 0 0.0 0.0 0.00 0.00 0.00 76 1013.9
20260904020504 81 0 0.0 0.0 0.00 0.00 0.00 77 1013.9
20260904020403 81 0 0.0 0.0 0.00 0.00 0.00 76 1013.8
20260904020303 81 0 0.0 0.0 0.00 0.00 0.00 76 1013.8
20260904020203 81 0 0.0 0.0 0.00 0.00 0.00 76 1013.8
20260904020003 82 0 0.0 0.0 0.00 0.00 0.00 76 1013.8
20260904015903 82 0 0.0 0.0 0.00 0.00 0.00 76 1013.7
20260904015703 82 0 0.0 0.0 0.00 0.00 0.00 76 1013.7
20260904015603 82 0 0.0 0.0 0.00 0.00 0.00 76 1013.7
20260904015418 82 0 0.0 0.0 0.00 0.00 0.00 76 1013.7
20260904015306 82 0 0.0 0.0 0.00 0.00 0.00 76 1013.7
20260904015103 82 0 0.0 0.0 0.00 0.00 0.00 76 1013.6
20260904015004 82 0 0.0 0.0 0.00 0.00 0.00 76 1013.6
20260904014903 82 0 0.0 0.0 0.00 0.00 0.00 76 1013.6
20260904014704 82 0 0.0 0.0 0.00 0.00 0.00 76 1013.7
20260904014603 82 0 0.0 0.0 0.00 0.00 0.00 76 1013.6
20260904014503 82 0 0.0 0.0 0.00 0.00 0.00 76 1013.6
20260904014404 82 0 0.0 0.0 0.00 0.00 0.00 75 1013.6
20260904014303 82 0 0.0 0.0 0.00 0.00 0.00 75 1013.6
20260904014203 82 0 0.0 0.0 0.00 0.00 0.00 75 1013.6
20260904014103 82 0 0.0 0.0 0.00 0.00 0.00 75 1013.6
20260904014018 82 0 0.0 0.0 0.00 0.00 0.00 75 1013.6
20260904013903 82 0 0.0 0.0 0.00 0.00 0.00 75 1013.6
20260904013703 82 0 0.0 0.0 0.00 0.00 0.00 75 1013.5
20260904013603 82 0 0.0 0.0 0.00 0.00 0.00 75 1013.5
20260904013503 82 0 0.0 0.0 0.00 0.00 0.00 75 1013.5
20260904013404 82 0 0.0 0.0 0.00 0.00 0.00 75 1013.5
20260904013304 82 0 0.0 0.0 0.00 0.00 0.00 75 1013.4
20260904013203 82 0 0.0 0.0 0.00 0.00 0.00 75 1013.4
20260904013103 82 0 0.0 0.0 0.00 0.00 0.00 75 1013.4
20260904013018 82 0 0.0 0.0 0.00 0.00 0.00 75 1013.4
20260904012903 82 0 0.0 0.0 0.00 0.00 0.00 75 1013.4
20260904012703 82 0 0.0 0.0 0.00 0.00 0.00 75 1013.4
20260904012603 82 0 0.0 0.0 0.00 0.00 0.00 75 1013.4
20260904012504 82 0 0.0 0.0 0.00 0.00 0.00 75 1013.4
20260904012306 83 0 0.0 0.0 0.00 0.00 0.00 75 1013.4
20260904012203 83 0 0.0 0.0 0.00 0.00 0.00 75 1013.4
20260904012103 83 0 0.0 0.0 0.00 0.00 0.00 75 1013.4
20260904012003 83 0 0.0 0.0 0.00 0.00 0.00 75 1013.4
20260904011904 83 0 0.0 0.0 0.00 0.00 0.00 75 1013.4
20260904011803 83 0 0.0 0.0 0.00 0.00 0.00 75 1013.4
20260904011703 83 0 0.0 0.0 0.00 0.00 0.00 75 1013.4
20260904011603 83 0 0.0 0.0 0.00 0.00 0.00 75 1013.4
20260904011519 83 0 0.0 0.0 0.00 0.00 0.00 75 1013.3
20260904011403 83 0 0.0 0.0 0.00 0.00 0.00 75 1013.3
20260904011204 83 0 0.0 0.0 0.00 0.00 0.00 75 1013.3
20260904011103 83 0 0.0 0.0 0.00 0.00 0.00 74 1013.3
20260904011003 83 0 0.0 0.0 0.00 0.00 0.00 74 1013.3
20260904010904 83 0 0.0 0.0 0.00 0.00 0.00 74 1013.3
20260904010803 83 0 0.0 0.0 0.00 0.00 0.00 74 1013.3
20260904010703 83 0 0.0 0.0 0.00 0.00 0.00 74 1013.3
20260904010603 83 0 0.0 0.0 0.00 0.00 0.00 75 1013.3
20260904010503 83 0 0.0 0.0 0.00 0.00 0.00 75 1013.3
20260904010403 83 0 0.0 0.0 0.00 0.00 0.00 75 1013.3
20260904010304 83 0 0.0 0.0 0.00 0.00 0.00 75 1013.3
20260904010203 83 0 0.0 0.0 0.00 0.00 0.00 75 1013.3
20260904010003 83 0 0.0 0.0 0.00 0.00 0.00 75 1013.2
20260904005903 83 0 0.0 0.0 0.00 0.00 0.00 75 1013.2
20260904005803 83 0 0.0 0.0 0.00 0.00 0.00 76 1013.2
20260904005703 83 0 0.0 0.0 0.00 0.00 0.00 76 1013.1
20260904005603 83 0 0.0 0.0 0.00 0.00 0.00 76 1013.1
20260904005503 83 0 0.0 0.0 0.00 0.00 0.00 76 1013.1
20260904005403 83 0 0.0 0.0 0.00 0.00 0.00 76 1013.1
20260904005306 83 0 0.0 0.0 0.00 0.00 0.00 76 1013.1
20260904005204 83 0 0.0 0.0 0.00 0.00 0.00 76 1013.0
20260904005103 83 0 0.0 0.0 0.00 0.00 0.00 76 1013.0
20260904005003 83 0 0.0 0.0 0.00 0.00 0.00 76 1013.0
20260904004903 83 0 0.0 0.0 0.00 0.00 0.00 75 1013.0
20260904004803 83 0 0.0 0.0 0.00 0.00 0.00 75 1013.0
20260904004704 83 0 0.0 0.0 0.00 0.00 0.00 75 1013.0
20260904004603 83 0 0.0 0.0 0.00 0.00 0.00 74 1013.0
20260904004504 83 0 0.0 0.0 0.00 0.00 0.00 75 1013.0
20260904004404 83 0 0.0 0.0 0.00 0.00 0.00 75 1013.0
20260904004303 83 0 0.0 0.0 0.00 0.00 0.00 75 1013.0
20260904004203 83 0 0.0 0.0 0.00 0.00 0.00 75 1012.9
20260904004004 83 0 0.0 0.0 0.00 0.00 0.00 75 1012.9
20260904003904 83 0 0.0 0.0 0.00 0.00 0.00 75 1012.9
20260904003803 83 0 0.0 0.0 0.00 0.00 0.00 75 1012.8
20260904003703 83 0 0.0 0.0 0.00 0.00 0.00 75 1012.8
20260904003603 83 0 0.0 0.0 0.00 0.00 0.00 75 1012.8
20260904003504 83 0 0.0 0.0 0.00 0.00 0.00 75 1012.8
20260904003403 83 0 0.0 0.0 0.00 0.00 0.00 75 1012.8
20260904003304 83 0 0.0 0.0 0.00 0.00 0.00 75 1012.8
20260904003216 83 0 0.0 0.0 0.00 0.00 0.00 75 1012.8
20260904003103 83 0 0.0 0.0 0.00 0.00 0.00 74 1012.8
20260904002903 83 0 0.0 0.0 0.00 0.00 0.00 75 1012.8
20260904002803 84 0 0.0 0.0 0.00 0.00 0.00 75 1012.8
20260904002703 84 0 0.0 0.0 0.00 0.00 0.00 75 1012.8
20260904002603 84 0 0.0 0.0 0.00 0.00 0.00 75 1012.8
20260904002503 84 0 0.0 0.0 0.00 0.00 0.00 75 1012.8
20260904002403 84 0 0.0 0.0 0.00 0.00 0.00 75 1012.8
20260904002306 84 0 0.0 0.0 0.00 0.00 0.00 74 1012.8
20260904002204 84 0 0.0 0.0 0.00 0.00 0.00 74 1012.8
20260904002104 84 0 0.0 0.0 0.00 0.00 0.00 74 1012.8
20260904002003 84 0 0.0 0.0 0.00 0.00 0.00 74 1012.7
20260904001904 85 0 0.0 0.0 0.00 0.00 0.00 74 1012.7
20260904001804 85 0 0.0 0.0 0.00 0.00 0.00 73 1012.7
20260904001704 85 0 0.0 0.0 0.00 0.00 0.00 73 1012.7
20260904001603 85 0 0.0 0.0 0.00 0.00 0.00 73 1012.6
20260904001517 85 0 0.0 0.0 0.00 0.00 0.00 73 1012.6
20260904001503 85 0 0.0 0.0 0.00 0.00 0.00 73 1012.7
20260904001203 85 0 0.0 0.0 0.00 0.00 0.00 72 1012.7
20260904001103 86 0 0.0 0.0 0.00 0.00 0.00 72 1012.6
20260904001003 86 0 0.0 0.0 0.00 0.00 0.00 72 1012.6
20260904000904 86 0 0.0 0.0 0.00 0.00 0.00 72 1012.6
20260904000804 86 0 0.0 0.0 0.00 0.00 0.00 71 1012.6
20260904000704 86 0 0.0 0.0 0.00 0.00 0.00 71 1012.6
20260904000604 86 0 0.0 0.0 0.00 0.00 0.00 71 1012.6
20260904000503 86 0 0.0 0.0 0.00 0.00 0.00 71 1012.6
20260904000403 86 0 0.0 0.0 0.00 0.00 0.00 71 1012.6
20260904000303 86 0 0.0 0.0 0.00 0.00 0.00 71 1012.6
20260904000204 86 0 0.0 0.0 0.00 0.00 0.00 71 1012.6
20260904000103 86 0 0.0 0.0 0.00 0.00 0.00 71 1012.6
20260904000003 86 0 0.0 0.0 0.00 0.00 0.00 71 1012.6
20260903235903 86 0 0.0 0.0 0.00 0.00 0.00 71 1012.6
20260903235804 86 0 0.0 0.0 0.00 0.00 0.00 71 1012.7
20260903235703 87 0 0.0 0.0 0.00 0.00 0.00 70 1012.7
20260903235604 87 0 0.0 0.0 0.00 0.00 0.00 71 1012.7
20260903235503 87 0 0.0 0.0 0.00 0.00 0.00 71 1012.6
20260903235404 87 0 0.0 0.0 0.00 0.00 0.00 70 1012.6
20260903235204 87 0 0.0 0.0 0.00 0.00 0.00 69 1012.6
20260903235103 87 0 0.0 0.0 0.00 0.00 0.00 69 1012.6
20260903234904 88 0 0.0 0.0 0.00 0.00 0.00 69 1012.6
20260903234803 88 0 0.0 0.0 0.00 0.00 0.00 68 1012.6
20260903234703 88 0 0.0 0.0 0.00 0.00 0.00 68 1012.6
20260903234604 88 0 0.0 0.0 0.00 0.00 0.00 66 1012.6
20260903234503 88 0 0.0 0.0 0.00 0.00 0.00 67 1012.6
20260903234403 88 0 0.0 0.0 0.00 0.00 0.00 68 1012.6
20260903234303 88 0 0.0 0.0 0.00 0.00 0.00 68 1012.6
20260903234203 88 0 0.0 0.0 0.00 0.00 0.00 69 1012.5
20260903234103 88 0 0.0 0.0 0.00 0.00 0.00 69 1012.5
20260903234003 88 0 0.0 0.0 0.00 0.00 0.00 69 1012.6
20260903233803 88 0 0.0 0.0 0.00 0.00 0.00 69 1012.6
20260903233704 88 0 0.0 0.0 0.00 0.00 0.00 68 1012.5
20260903233604 89 0 0.0 0.0 0.00 0.00 0.00 68 1012.5
20260903233504 89 0 0.0 0.0 0.00 0.00 0.00 67 1012.5
20260903233403 89 0 0.0 0.0 0.00 0.00 0.00 67 1012.5
20260903233318 89 0 0.0 0.0 0.00 0.00 0.00 67 1012.5
20260903233304 89 0 0.0 0.0 0.00 0.00 0.00 66 1012.5
20260903233203 89 0 0.0 0.0 0.00 0.00 0.00 65 1012.5
20260903233004 89 0 0.0 0.0 0.00 0.00 0.00 66 1012.5
20260903232904 89 0 0.0 0.0 0.00 0.00 0.00 66 1012.5
20260903232803 90 0 0.0 0.0 0.00 0.00 0.00 65 1012.5
20260903232717 90 0 0.0 0.0 0.00 0.00 0.00 64 1012.4
20260903232703 90 0 0.0 0.0 0.00 0.00 0.00 63 1012.4
20260903232603 90 0 0.0 0.0 0.00 0.00 0.00 63 1012.4
20260903232417 90 0 0.0 0.0 0.00 0.00 0.00 64 1012.4
20260903232306 90 0 0.0 0.0 0.00 0.00 0.00 63 1012.4
20260903232119 90 0 0.0 0.0 0.00 0.00 0.00 62 1012.4
20260903232103 90 0 0.0 0.0 0.00 0.00 0.00 61 1012.4
20260903232003 90 0 0.0 0.0 0.00 0.00 0.00 61 1012.4
20260903231804 91 0 0.0 0.0 0.00 0.00 0.00 61 1012.4
20260903231704 91 0 0.0 0.0 0.00 0.00 0.00 60 1012.4
20260903231403 91 0 0.0 0.0 0.00 0.00 0.00 59 1012.4
20260903231304 91 0 0.0 0.0 0.00 0.00 0.00 59 1012.3
20260903231203 91 0 0.0 0.0 0.00 0.00 0.00 58 1012.3
20260903231103 92 0 0.0 0.0 0.00 0.00 0.00 58 1012.2
20260903231003 92 0 0.0 0.0 0.00 0.00 0.00 58 1012.2
20260903230904 92 0 0.0 0.0 0.00 0.00 0.00 58 1012.2
20260903230803 92 0 0.0 0.0 0.00 0.00 0.00 58 1012.2
20260903230704 92 0 0.0 0.0 0.00 0.00 0.00 58 1012.2
20260903230603 92 0 0.0 0.0 0.00 0.00 0.00 57 1012.3
20260903230503 92 0 0.0 0.0 0.00 0.00 0.00 57 1012.3
20260903230403 92 0 0.0 0.0 0.00 0.00 0.00 57 1012.2
20260903230203 93 0 0.0 0.0 0.00 0.00 0.00 56 1012.2
20260903230103 93 0 0.0 0.0 0.00 0.00 0.00 55 1012.2
20260903230003 93 0 0.0 0.0 0.00 0.00 0.00 55 1012.2
20260903225904 93 0 0.0 0.0 0.00 0.00 0.00 55 1012.2
20260903225704 93 0 0.0 0.0 0.00 0.00 0.00 56 1012.2
20260903225604 93 0 0.0 0.0 0.00 0.00 0.00 55 1012.2
20260903225504 93 0 0.0 0.0 0.00 0.00 0.00 55 1012.2
20260903225403 93 0 0.0 0.0 0.00 0.00 0.00 55 1012.2
20260903225306 93 0 0.0 0.0 0.00 0.00 0.00 56 1012.1
20260903225203 93 0 0.0 0.0 0.00 0.00 0.00 56 1012.1
20260903225103 93 0 0.0 0.0 0.00 0.00 0.00 54 1012.1
20260903225003 93 0 0.0 0.0 0.00 0.00 0.00 57 1012.2
20260903224903 93 0 0.0 0.0 0.00 0.00 0.00 56 1012.2
20260903224803 93 0 0.0 0.0 0.00 0.00 0.00 56 1012.2
20260903224604 93 0 0.0 0.0 0.00 0.00 0.00 55 1012.3
20260903224504 93 0 0.0 0.0 0.00 0.00 0.00 54 1012.2
20260903224403 93 0 0.0 0.0 0.00 0.00 0.00 54 1012.2
20260903224303 93 0 0.0 0.0 0.00 0.00 0.00 54 1012.2
20260903224203 93 0 0.0 0.0 0.00 0.00 0.00 54 1012.2
20260903224104 93 0 0.0 0.0 0.00 0.00 0.00 55 1012.2